GFSSE_prec_precacc_111.txt.gz
Total_Precipitation_Accumulation
0.00 0.03 0.13 0.20 0.17 0.15 0.11 0.05 0.05 0.05 0.05 0.06 0.07 0.06 0.07 0.06 0.08 0.10 0.11 0.07 0.05 0.03 0.03 0.05 0.05 0.18 0.38 0.20 0.09 0.03 0.02 0.02 0.02 0.01 0.00 0.02 0.03 0.05 0.04 0.04 0.05 0.07 0.11
0.00 0.02 0.09 0.18 0.16 0.15 0.14 0.10 0.06 0.04 0.08 0.10 0.09 0.08 0.11 0.14 0.09 0.04 0.04 0.06 0.05 0.01 0.04 0.11 0.16 0.16 0.40 0.24 0.06 0.03 0.02 0.02 0.00 0.00 0.01 0.01 0.03 0.04 0.01 0.01 0.09 0.07 0.10
0.00 0.02 0.05 0.13 0.14 0.13 0.11 0.11 0.06 0.04 0.08 0.10 0.09 0.12 0.16 0.09 0.04 0.02 0.04 0.04 0.05 0.04 0.10 0.11 0.14 0.21 0.31 0.11 0.06 0.03 0.02 0.00 0.00 0.00 0.01 0.03 0.08 0.18 0.10 0.07 0.12 0.11 0.10
0.01 0.02 0.04 0.08 0.10 0.12 0.13 0.09 0.05 0.05 0.10 0.12 0.11 0.16 0.17 0.08 0.05 0.02 0.01 0.02 0.02 0.04 0.11 0.13 0.17 0.23 0.10 0.04 0.07 0.03 0.01 0.00 0.00 0.00 0.00 0.01 0.03 0.14 0.19 0.20 0.20 0.16 0.11
0.01 0.02 0.05 0.06 0.09 0.13 0.10 0.09 0.05 0.09 0.13 0.13 0.14 0.15 0.14 0.12 0.07 0.01 0.01 0.01 0.03 0.05 0.08 0.16 0.19 0.08 0.01 0.00 0.01 0.01 0.01 0.01 0.00 0.00 0.01 0.02 0.06 0.16 0.16 0.16 0.17 0.24 0.24
0.02 0.01 0.06 0.06 0.10 0.11 0.09 0.08 0.09 0.09 0.10 0.10 0.11 0.08 0.10 0.12 0.09 0.02 0.01 0.01 0.04 0.05 0.08 0.12 0.05 0.01 0.00 0.00 0.00 0.00 0.00 0.01 0.00 0.00 0.01 0.05 0.06 0.20 0.20 0.08 0.11 0.21 0.28
0.02 0.03 0.07 0.08 0.07 0.08 0.07 0.06 0.08 0.10 0.09 0.09 0.06 0.05 0.06 0.11 0.14 0.03 0.01 0.02 0.03 0.05 0.04 0.02 0.00 0.00 0.00 0.00 0.00 0.01 0.01 0.00 0.00 0.00 0.01 0.02 0.04 0.11 0.08 0.07 0.04 0.06 0.08
0.02 0.05 0.06 0.09 0.10 0.10 0.07 0.06 0.07 0.07 0.09 0.10 0.07 0.03 0.03 0.06 0.12 0.05 0.02 0.03 0.03 0.02 0.01 0.00 0.00 0.00 0.00 0.00 0.01 0.01 0.01 0.00 0.00 0.00 0.00 0.01 0.03 0.02 0.03 0.03 0.03 0.03 0.04
0.02 0.05 0.07 0.09 0.09 0.09 0.09 0.07 0.05 0.05 0.07 0.06 0.03 0.02 0.01 0.02 0.07 0.06 0.04 0.06 0.03 0.02 0.02 0.02 0.02 0.02 0.02 0.01 0.01 0.00 0.00 0.00 0.00 0.00 0.00 0.00 0.01 0.02 0.02 0.04 0.07 0.07 0.09
0.05 0.04 0.05 0.08 0.10 0.11 0.09 0.07 0.05 0.03 0.04 0.04 0.02 0.01 0.00 0.00 0.03 0.06 0.04 0.06 0.04 0.02 0.01 0.02 0.02 0.02 0.02 0.02 0.01 0.00 0.00 0.00 0.00 0.00 0.00 0.00 0.00 0.02 0.06 0.08 0.08 0.11 0.16
0.10 0.08 0.07 0.06 0.07 0.08 0.06 0.05 0.04 0.03 0.02 0.01 0.00 0.00 0.00 0.00 0.01 0.01 0.02 0.04 0.04 0.01 0.00 0.01 0.01 0.01 0.01 0.01 0.00 0.00 0.00 0.00 0.00 0.00 0.00 0.00 0.00 0.02 0.04 0.08 0.11 0.12 0.13
0.15 0.14 0.10 0.07 0.05 0.07 0.05 0.05 0.04 0.02 0.00 0.00 0.00 0.00 0.00 0.00 0.00 0.00 0.00 0.03 0.04 0.01 0.00 0.00 0.00 0.00 0.00 0.00 0.00 0.00 0.00 0.00 0.00 0.00 0.00 0.00 0.00 0.02 0.03 0.04 0.06 0.06 0.04
0.16 0.12 0.09 0.07 0.06 0.04 0.04 0.04 0.04 0.02 0.00 0.00 0.00 0.00 0.00 0.00 0.00 0.00 0.00 0.02 0.02 0.00 0.00 0.00 0.00 0.00 0.00 0.00 0.00 0.00 0.00 0.00 0.00 0.00 0.00 0.00 0.01 0.01 0.01 0.03 0.03 0.04 0.03
0.23 0.12 0.08 0.09 0.07 0.05 0.02 0.02 0.02 0.01 0.00 0.00 0.00 0.00 0.00 0.00 0.00 0.00 0.00 0.00 0.01 0.00 0.00 0.00 0.00 0.00 0.00 0.00 0.00 0.00 0.00 0.00 0.00 0.00 0.00 0.00 0.00 0.01 0.01 0.01 0.02 0.03 0.03
0.32 0.13 0.10 0.07 0.10 0.06 0.04 0.02 0.01 0.01 0.00 0.00 0.00 0.00 0.00 0.00 0.00 0.00 0.00 0.00 0.00 0.00 0.00 0.00 0.00 0.00 0.00 0.00 0.00 0.00 0.00 0.00 0.00 0.00 0.00 0.00 0.00 0.00 0.00 0.01 0.01 0.01 0.04
0.71 0.29 0.12 0.12 0.07 0.05 0.07 0.07 0.02 0.00 0.00 0.00 0.00 0.00 0.00 0.00 0.00 0.00 0.00 0.00 0.00 0.00 0.00 0.00 0.00 0.00 0.00 0.00 0.00 0.00 0.00 0.00 0.00 0.00 0.00 0.00 0.00 0.00 0.00 0.01 0.03 0.01 0.02
0.47 0.45 0.24 0.21 0.17 0.07 0.16 0.19 0.12 0.05 0.03 0.01 0.00 0.00 0.00 0.00 0.00 0.00 0.00 0.00 0.00 0.00 0.00 0.00 0.00 0.00 0.00 0.00 0.00 0.00 0.00 0.00 0.00 0.00 0.00 0.00 0.00 0.00 0.00 0.02 0.17 0.17 0.08
0.68 0.65 0.49 0.33 0.23 0.25 0.14 0.27 0.23 0.11 0.05 0.03 0.01 0.00 0.00 0.00 0.00 0.00 0.00 0.00 0.00 0.00 0.00 0.00 0.00 0.00 0.00 0.00 0.00 0.00 0.00 0.00 0.00 0.00 0.00 0.00 0.00 0.00 0.00 0.00 0.06 0.16 0.19
0.50 0.51 0.45 0.26 0.22 0.32 0.40 0.46 0.38 0.26 0.09 0.09 0.04 0.01 0.01 0.00 0.00 0.00 0.00 0.00 0.00 0.00 0.00 0.00 0.00 0.00 0.00 0.00 0.00 0.00 0.00 0.00 0.00 0.00 0.00 0.00 0.00 0.00 0.00 0.00 0.00 0.01 0.05
0.88 0.64 0.64 0.52 0.43 0.48 0.67 0.73 0.62 0.37 0.17 0.15 0.16 0.08 0.12 0.03 0.04 0.00 0.00 0.00 0.00 0.00 0.00 0.00 0.00 0.00 0.00 0.00 0.00 0.00 0.00 0.00 0.00 0.00 0.00 0.00 0.00 0.00 0.00 0.00 0.00 0.00 0.00
0.92 1.02 0.78 0.91 0.96 0.87 0.56 0.41 0.48 0.43 0.56 0.46 0.46 0.41 0.29 0.14 0.13 0.06 0.01 0.00 0.00 0.00 0.00 0.00 0.00 0.00 0.00 0.00 0.00 0.00 0.00 0.00 0.00 0.00 0.00 0.00 0.00 0.00 0.00 0.00 0.00 0.01 0.00
0.60 0.92 1.16 1.07 0.71 0.68 0.90 0.78 0.76 0.90 0.67 0.91 1.00 0.63 0.66 0.56 0.56 0.25 0.10 0.11 0.04 0.01 0.01 0.00 0.01 0.01 0.01 0.01 0.02 0.04 0.02 0.01 0.00 0.00 0.00 0.00 0.00 0.01 0.03 0.07 0.09 0.07 0.02
0.64 0.63 1.15 1.72 1.15 0.87 1.16 1.76 1.68 1.47 1.05 1.03 0.76 0.85 1.18 1.32 1.22 0.84 0.64 0.54 0.39 0.25 0.35 0.27 0.32 0.28 0.23 0.22 0.18 0.22 0.23 0.16 0.11 0.05 0.05 0.05 0.08 0.07 0.06 0.04 0.05 0.04 0.03
0.29 0.59 1.02 1.37 2.11 1.05 1.08 1.17 1.09 0.98 1.13 0.92 1.11 1.23 1.06 1.06 1.16 1.42 1.43 1.21 1.04 0.97 0.87 0.96 0.80 0.85 0.90 0.77 0.70 0.57 0.56 0.42 0.37 0.21 0.07 0.08 0.07 0.05 0.03 0.02 0.02 0.05 0.09
0.21 0.41 0.63 0.99 1.24 2.13 1.40 1.17 0.93 0.74 0.70 0.76 0.74 0.76 0.83 0.86 0.97 1.12 1.23 1.41 1.44 1.54 1.49 1.55 1.51 1.44 1.26 1.06 0.85 0.75 0.63 0.57 0.55 0.74 0.56 0.28 0.19 0.10 0.05 0.07 0.09 0.12 0.18
0.12 0.28 0.41 0.57 0.64 1.49 2.13 1.59 1.30 0.70 0.60 0.78 0.82 0.95 1.00 1.20 1.30 1.36 1.45 1.35 1.35 1.19 1.05 1.11 1.20 1.03 0.88 0.72 0.61 0.69 0.81 0.80 0.61 0.61 0.53 0.26 0.17 0.09 0.06 0.06 0.09 0.11 0.11

GFSSE_prec_precacc_114.txt.gz
Total_Precipitation_Accumulation
0.00 0.03 0.14 0.20 0.17 0.15 0.11 0.05 0.05 0.06 0.05 0.06 0.07 0.07 0.13 0.07 0.08 0.10 0.12 0.07 0.05 0.04 0.04 0.06 0.05 0.18 0.38 0.21 0.10 0.04 0.02 0.02 0.02 0.01 0.01 0.03 0.05 0.06 0.05 0.04 0.06 0.07 0.11
0.00 0.02 0.09 0.18 0.16 0.15 0.14 0.10 0.06 0.04 0.08 0.10 0.09 0.09 0.13 0.14 0.09 0.05 0.05 0.07 0.05 0.02 0.05 0.11 0.16 0.16 0.42 0.26 0.07 0.03 0.02 0.02 0.00 0.00 0.01 0.01 0.03 0.05 0.02 0.02 0.09 0.08 0.10
0.00 0.02 0.05 0.13 0.14 0.13 0.11 0.11 0.06 0.04 0.08 0.10 0.09 0.12 0.17 0.09 0.04 0.03 0.04 0.04 0.06 0.06 0.11 0.12 0.15 0.22 0.32 0.11 0.06 0.03 0.02 0.00 0.00 0.00 0.01 0.04 0.10 0.20 0.10 0.07 0.13 0.11 0.10
0.01 0.02 0.05 0.08 0.11 0.12 0.13 0.09 0.05 0.05 0.11 0.12 0.12 0.17 0.20 0.08 0.05 0.02 0.01 0.02 0.03 0.05 0.12 0.14 0.17 0.23 0.11 0.04 0.07 0.03 0.01 0.00 0.00 0.00 0.00 0.01 0.03 0.14 0.19 0.20 0.20 0.16 0.11
0.01 0.02 0.05 0.07 0.09 0.13 0.10 0.09 0.06 0.09 0.13 0.13 0.15 0.17 0.17 0.13 0.07 0.01 0.01 0.01 0.04 0.05 0.08 0.16 0.19 0.08 0.01 0.00 0.01 0.01 0.01 0.01 0.00 0.00 0.01 0.02 0.06 0.16 0.16 0.16 0.17 0.24 0.24
0.02 0.02 0.06 0.06 0.10 0.11 0.09 0.09 0.09 0.10 0.10 0.11 0.12 0.11 0.11 0.13 0.09 0.02 0.01 0.02 0.04 0.05 0.08 0.12 0.05 0.01 0.00 0.00 0.00 0.00 0.00 0.01 0.00 0.00 0.01 0.05 0.06 0.20 0.20 0.08 0.11 0.21 0.28
0.03 0.04 0.07 0.08 0.07 0.08 0.07 0.06 0.09 0.11 0.10 0.11 0.08 0.06 0.07 0.11 0.14 0.03 0.01 0.02 0.04 0.05 0.04 0.02 0.00 0.00 0.00 0.00 0.00 0.01 0.01 0.00 0.00 0.00 0.01 0.02 0.04 0.11 0.08 0.07 0.04 0.06 0.08
0.03 0.05 0.06 0.09 0.10 0.10 0.07 0.06 0.08 0.08 0.10 0.11 0.07 0.04 0.03 0.06 0.12 0.05 0.02 0.04 0.03 0.02 0.01 0.00 0.00 0.00 0.00 0.00 0.01 0.01 0.01 0.00 0.00 0.00 0.00 0.01 0.03 0.02 0.03 0.03 0.03 0.03 0.04
0.06 0.07 0.08 0.09 0.09 0.09 0.09 0.07 0.06 0.05 0.08 0.07 0.04 0.02 0.01 0.02 0.07 0.06 0.05 0.06 0.03 0.02 0.02 0.02 0.02 0.02 0.02 0.01 0.01 0.00 0.00 0.00 0.00 0.00 0.00 0.00 0.01 0.02 0.02 0.04 0.07 0.07 0.09
0.12 0.09 0.06 0.08 0.10 0.11 0.10 0.07 0.05 0.04 0.04 0.04 0.02 0.01 0.00 0.00 0.03 0.06 0.04 0.06 0.04 0.02 0.01 0.02 0.02 0.02 0.02 0.02 0.01 0.00 0.00 0.00 0.00 0.00 0.00 0.00 0.00 0.02 0.06 0.08 0.08 0.11 0.16
0.21 0.15 0.09 0.06 0.07 0.08 0.07 0.06 0.04 0.03 0.02 0.01 0.00 0.00 0.00 0.00 0.01 0.01 0.02 0.05 0.05 0.01 0.00 0.01 0.01 0.01 0.01 0.01 0.00 0.00 0.00 0.00 0.00 0.00 0.00 0.00 0.00 0.02 0.04 0.08 0.11 0.12 0.13
0.27 0.20 0.14 0.08 0.05 0.07 0.05 0.05 0.05 0.02 0.00 0.00 0.00 0.00 0.00 0.00 0.00 0.00 0.01 0.04 0.04 0.01 0.00 0.00 0.00 0.00 0.00 0.00 0.00 0.00 0.00 0.00 0.00 0.00 0.00 0.00 0.00 0.02 0.03 0.04 0.06 0.06 0.04
0.39 0.19 0.13 0.08 0.06 0.05 0.04 0.05 0.04 0.02 0.01 0.00 0.00 0.00 0.00 0.00 0.00 0.00 0.01 0.03 0.02 0.00 0.00 0.00 0.00 0.00 0.00 0.00 0.00 0.00 0.00 0.00 0.00 0.00 0.00 0.00 0.01 0.01 0.01 0.03 0.03 0.04 0.03
1.08 0.23 0.12 0.10 0.07 0.05 0.02 0.02 0.02 0.01 0.00 0.00 0.00 0.00 0.00 0.00 0.00 0.00 0.00 0.01 0.01 0.00 0.00 0.00 0.00 0.00 0.00 0.00 0.00 0.00 0.00 0.00 0.00 0.00 0.00 0.00 0.00 0.01 0.01 0.01 0.02 0.03 0.03
1.53 0.36 0.15 0.09 0.10 0.06 0.04 0.02 0.01 0.01 0.00 0.00 0.00 0.00 0.00 0.00 0.00 0.00 0.00 0.00 0.00 0.00 0.00 0.00 0.00 0.00 0.00 0.00 0.00 0.00 0.00 0.00 0.00 0.00 0.00 0.00 0.00 0.00 0.00 0.01 0.01 0.01 0.04
1.97 0.68 0.13 0.12 0.07 0.05 0.07 0.07 0.02 0.00 0.00 0.00 0.00 0.00 0.00 0.00 0.00 0.00 0.00 0.00 0.00 0.00 0.00 0.00 0.00 0.00 0.00 0.00 0.00 0.00 0.00 0.00 0.00 0.00 0.00 0.00 0.00 0.00 0.00 0.01 0.03 0.01 0.02
1.25 0.83 0.26 0.21 0.17 0.07 0.16 0.19 0.12 0.05 0.03 0.01 0.00 0.00 0.00 0.00 0.00 0.00 0.00 0.00 0.00 0.00 0.00 0.00 0.00 0.00 0.00 0.00 0.00 0.00 0.00 0.00 0.00 0.00 0.00 0.00 0.00 0.00 0.00 0.03 0.19 0.18 0.08
0.89 0.85 0.53 0.34 0.23 0.25 0.14 0.27 0.23 0.11 0.05 0.03 0.01 0.00 0.00 0.00 0.00 0.00 0.00 0.00 0.00 0.00 0.00 0.00 0.00 0.00 0.00 0.00 0.00 0.00 0.00 0.00 0.00 0.00 0.00 0.00 0.00 0.00 0.00 0.00 0.06 0.17 0.20
0.54 0.60 0.48 0.26 0.22 0.33 0.40 0.46 0.38 0.26 0.09 0.09 0.04 0.01 0.01 0.00 0.00 0.00 0.00 0.00 0.00 0.00 0.00 0.00 0.00 0.00 0.00 0.00 0.00 0.00 0.00 0.00 0.00 0.00 0.00 0.00 0.00 0.00 0.00 0.00 0.00 0.01 0.06
1.04 0.73 0.69 0.54 0.43 0.48 0.67 0.73 0.62 0.37 0.17 0.15 0.16 0.08 0.12 0.03 0.04 0.00 0.00 0.00 0.00 0.00 0.00 0.00 0.00 0.00 0.00 0.00 0.00 0.00 0.00 0.00 0.00 0.00 0.00 0.00 0.00 0.00 0.00 0.00 0.00 0.00 0.00
1.24 1.16 0.85 0.94 0.97 0.87 0.57 0.42 0.48 0.43 0.56 0.46 0.46 0.41 0.29 0.14 0.13 0.06 0.01 0.00 0.00 0.00 0.00 0.00 0.00 0.00 0.00 0.00 0.00 0.00 0.00 0.00 0.00 0.00 0.00 0.00 0.00 0.00 0.00 0.00 0.01 0.02 0.01
1.19 1.09 1.26 1.12 0.72 0.69 0.90 0.79 0.77 0.90 0.67 0.91 1.00 0.63 0.66 0.56 0.56 0.25 0.10 0.11 0.04 0.01 0.01 0.00 0.01 0.01 0.01 0.01 0.02 0.04 0.02 0.01 0.00 0.00 0.01 0.00 0.00 0.01 0.03 0.07 0.10 0.10 0.05
1.75 0.93 1.33 1.80 1.18 0.89 1.17 1.78 1.69 1.47 1.06 1.03 0.76 0.85 1.18 1.32 1.22 0.84 0.64 0.54 0.39 0.26 0.35 0.28 0.32 0.30 0.23 0.22 0.18 0.22 0.23 0.17 0.11 0.05 0.05 0.05 0.08 0.07 0.07 0.05 0.05 0.04 0.04
1.51 1.24 1.28 1.56 2.20 1.12 1.15 1.24 1.13 1.00 1.13 0.92 1.11 1.23 1.07 1.07 1.17 1.43 1.44 1.22 1.05 0.99 0.90 0.98 0.83 0.89 0.91 0.78 0.70 0.57 0.57 0.43 0.39 0.22 0.07 0.08 0.07 0.06 0.05 0.03 0.03 0.05 0.09
0.51 1.06 1.14 1.36 1.44 2.32 1.53 1.30 1.08 0.91 0.80 0.81 0.77 0.79 0.87 0.93 1.01 1.16 1.26 1.43 1.52 1.61 1.56 1.61 1.58 1.47 1.28 1.06 0.85 0.76 0.64 0.57 0.56 0.76 0.59 0.31 0.25 0.13 0.06 0.07 0.09 0.12 0.18
0.24 0.54 0.88 1.20 1.05 1.78 2.46 2.01 1.50 0.96 0.85 0.93 0.91 0.99 1.06 1.26 1.35 1.43 1.53 1.44 1.48 1.30 1.11 1.13 1.22 1.06 0.88 0.72 0.62 0.69 0.81 0.80 0.62 0.62 0.53 0.26 0.17 0.09 0.06 0.06 0.09 0.11 0.12

GFSSE_prec_precacc_117.txt.gz
Total_Precipitation_Accumulation
0.00 0.03 0.14 0.20 0.17 0.15 0.11 0.05 0.06 0.06 0.05 0.06 0.07 0.10 0.14 0.07 0.10 0.11 0.12 0.08 0.06 0.05 0.05 0.07 0.05 0.18 0.40 0.22 0.10 0.04 0.02 0.02 0.02 0.01 0.01 0.04 0.07 0.07 0.05 0.05 0.06 0.07 0.11
0.00 0.02 0.09 0.18 0.16 0.15 0.14 0.10 0.06 0.04 0.08 0.10 0.10 0.10 0.13 0.14 0.09 0.05 0.05 0.07 0.05 0.02 0.05 0.11 0.17 0.20 0.45 0.27 0.07 0.03 0.02 0.02 0.00 0.00 0.01 0.01 0.04 0.06 0.02 0.02 0.09 0.08 0.10
0.00 0.02 0.05 0.13 0.14 0.13 0.11 0.11 0.06 0.04 0.08 0.10 0.10 0.13 0.18 0.09 0.04 0.03 0.04 0.04 0.06 0.06 0.11 0.13 0.17 0.23 0.33 0.11 0.06 0.04 0.02 0.00 0.00 0.01 0.02 0.04 0.10 0.20 0.10 0.07 0.13 0.11 0.10
0.01 0.02 0.05 0.08 0.11 0.12 0.13 0.09 0.05 0.06 0.11 0.12 0.12 0.18 0.22 0.08 0.05 0.03 0.01 0.03 0.04 0.06 0.12 0.14 0.17 0.23 0.11 0.05 0.07 0.03 0.01 0.00 0.00 0.00 0.00 0.01 0.03 0.14 0.19 0.20 0.20 0.16 0.11
0.01 0.02 0.06 0.07 0.09 0.13 0.10 0.09 0.06 0.09 0.13 0.13 0.16 0.18 0.20 0.13 0.07 0.01 0.01 0.03 0.05 0.06 0.08 0.16 0.19 0.08 0.01 0.00 0.01 0.01 0.01 0.01 0.00 0.00 0.01 0.02 0.06 0.16 0.16 0.16 0.17 0.24 0.24
0.02 0.02 0.07 0.07 0.10 0.11 0.09 0.09 0.09 0.10 0.11 0.11 0.13 0.13 0.14 0.13 0.09 0.02 0.02 0.03 0.04 0.05 0.08 0.12 0.05 0.01 0.00 0.00 0.00 0.00 0.00 0.01 0.00 0.00 0.01 0.05 0.06 0.20 0.20 0.08 0.11 0.21 0.28
0.03 0.04 0.08 0.08 0.08 0.08 0.07 0.06 0.09 0.12 0.11 0.11 0.09 0.08 0.08 0.11 0.14 0.04 0.02 0.02 0.04 0.05 0.04 0.02 0.00 0.00 0.00 0.00 0.00 0.01 0.01 0.00 0.00 0.00 0.01 0.02 0.04 0.11 0.08 0.07 0.04 0.06 0.08
0.07 0.07 0.08 0.10 0.10 0.11 0.08 0.07 0.09 0.08 0.11 0.13 0.10 0.06 0.04 0.06 0.12 0.05 0.03 0.04 0.03 0.02 0.01 0.00 0.00 0.00 0.00 0.00 0.01 0.01 0.01 0.00 0.00 0.00 0.00 0.01 0.03 0.02 0.03 0.03 0.03 0.03 0.04
0.27 0.28 0.14 0.10 0.09 0.10 0.10 0.07 0.07 0.06 0.10 0.12 0.08 0.03 0.01 0.02 0.07 0.07 0.05 0.06 0.03 0.02 0.02 0.02 0.02 0.02 0.02 0.01 0.01 0.00 0.00 0.00 0.00 0.00 0.00 0.00 0.01 0.02 0.02 0.04 0.07 0.07 0.09
0.28 0.37 0.18 0.09 0.10 0.11 0.11 0.08 0.06 0.05 0.06 0.08 0.03 0.01 0.00 0.00 0.03 0.07 0.05 0.06 0.04 0.02 0.01 0.02 0.02 0.02 0.02 0.02 0.01 0.00 0.00 0.00 0.00 0.00 0.00 0.00 0.00 0.02 0.06 0.08 0.08 0.11 0.16
0.37 0.46 0.26 0.07 0.07 0.08 0.08 0.08 0.06 0.05 0.03 0.01 0.00 0.00 0.00 0.00 0.01 0.02 0.02 0.05 0.05 0.02 0.00 0.01 0.01 0.01 0.01 0.01 0.00 0.00 0.00 0.00 0.00 0.00 0.00 0.00 0.00 0.02 0.04 0.08 0.11 0.12 0.13
0.45 0.47 0.35 0.08 0.05 0.07 0.07 0.08 0.10 0.06 0.02 0.00 0.00 0.00 0.00 0.00 0.00 0.01 0.02 0.04 0.04 0.01 0.00 0.00 0.00 0.00 0.00 0.00 0.00 0.00 0.00 0.00 0.00 0.00 0.00 0.00 0.00 0.02 0.03 0.04 0.06 0.06 0.04
0.55 0.48 0.37 0.09 0.06 0.05 0.04 0.08 0.09 0.05 0.02 0.00 0.00 0.00 0.00 0.00 0.00 0.01 0.02 0.03 0.02 0.00 0.00 0.00 0.00 0.00 0.00 0.00 0.00 0.00 0.00 0.00 0.00 0.00 0.00 0.00 0.01 0.01 0.01 0.03 0.03 0.04 0.03
1.36 0.77 0.62 0.13 0.07 0.05 0.02 0.04 0.04 0.03 0.01 0.00 0.00 0.00 0.00 0.00 0.00 0.01 0.01 0.01 0.01 0.00 0.00 0.00 0.00 0.00 0.00 0.00 0.00 0.00 0.00 0.00 0.00 0.00 0.00 0.00 0.00 0.01 0.01 0.01 0.02 0.03 0.03
1.74 1.40 0.99 0.30 0.10 0.06 0.04 0.02 0.02 0.01 0.00 0.00 0.00 0.00 0.00 0.00 0.00 0.00 0.00 0.00 0.00 0.00 0.00 0.00 0.00 0.00 0.00 0.00 0.00 0.00 0.00 0.00 0.00 0.00 0.00 0.00 0.00 0.00 0.00 0.01 0.01 0.01 0.04
2.25 1.92 1.42 0.68 0.08 0.05 0.07 0.07 0.02 0.01 0.00 0.00 0.00 0.00 0.00 0.00 0.00 0.00 0.00 0.00 0.00 0.00 0.00 0.00 0.00 0.00 0.00 0.00 0.00 0.00 0.00 0.00 0.00 0.00 0.00 0.00 0.00 0.00 0.00 0.01 0.03 0.01 0.02
1.70 1.70 1.75 0.70 0.18 0.07 0.17 0.19 0.12 0.05 0.03 0.01 0.00 0.00 0.00 0.00 0.00 0.00 0.00 0.00 0.00 0.00 0.00 0.00 0.00 0.00 0.00 0.00 0.00 0.00 0.00 0.00 0.00 0.00 0.00 0.00 0.00 0.00 0.00 0.03 0.20 0.18 0.08
1.27 1.28 1.41 1.00 0.28 0.25 0.14 0.27 0.23 0.11 0.05 0.03 0.01 0.00 0.00 0.00 0.00 0.00 0.00 0.00 0.00 0.00 0.00 0.00 0.00 0.00 0.00 0.00 0.00 0.00 0.00 0.00 0.00 0.00 0.00 0.00 0.00 0.00 0.00 0.00 0.06 0.18 0.21
1.25 0.90 0.95 0.65 0.33 0.34 0.41 0.46 0.38 0.26 0.09 0.09 0.04 0.01 0.01 0.00 0.00 0.00 0.00 0.00 0.00 0.00 0.00 0.00 0.00 0.00 0.00 0.00 0.00 0.00 0.00 0.00 0.00 0.00 0.00 0.00 0.00 0.00 0.00 0.00 0.00 0.01 0.07
1.66 1.48 1.02 0.76 0.52 0.52 0.68 0.74 0.62 0.38 0.17 0.15 0.16 0.08 0.12 0.03 0.04 0.00 0.00 0.00 0.00 0.00 0.00 0.00 0.00 0.00 0.00 0.00 0.00 0.00 0.00 0.00 0.00 0.00 0.00 0.00 0.00 0.00 0.00 0.00 0.00 0.00 0.00
1.74 1.79 1.47 1.22 1.05 0.92 0.60 0.45 0.50 0.44 0.56 0.46 0.46 0.41 0.29 0.14 0.13 0.06 0.01 0.00 0.00 0.00 0.00 0.00 0.00 0.00 0.00 0.00 0.00 0.00 0.00 0.00 0.00 0.00 0.00 0.00 0.00 0.00 0.00 0.01 0.02 0.03 0.01
1.80 1.50 1.71 1.41 0.86 0.71 0.91 0.80 0.78 0.90 0.67 0.91 1.00 0.63 0.66 0.56 0.56 0.25 0.10 0.11 0.04 0.01 0.01 0.00 0.01 0.01 0.01 0.01 0.02 0.04 0.02 0.01 0.00 0.00 0.01 0.00 0.00 0.01 0.03 0.07 0.11 0.10 0.06
2.56 1.47 1.66 2.18 1.40 0.94 1.18 1.82 1.72 1.50 1.06 1.03 0.77 0.85 1.18 1.32 1.22 0.84 0.64 0.54 0.39 0.26 0.35 0.28 0.32 0.30 0.23 0.22 0.18 0.22 0.23 0.18 0.12 0.05 0.05 0.05 0.08 0.07 0.07 0.05 0.05 0.05 0.04
2.02 1.90 1.73 2.30 2.55 1.21 1.19 1.27 1.14 1.00 1.13 0.92 1.11 1.23 1.07 1.07 1.17 1.43 1.44 1.22 1.05 0.99 0.90 0.98 0.83 0.90 0.95 0.80 0.70 0.57 0.57 0.44 0.41 0.23 0.07 0.08 0.07 0.06 0.06 0.03 0.03 0.05 0.09
0.95 1.99 1.91 2.35 2.13 2.48 1.63 1.42 1.12 0.92 0.81 0.81 0.77 0.79 0.87 0.93 1.01 1.17 1.27 1.44 1.52 1.62 1.57 1.62 1.60 1.48 1.29 1.07 0.85 0.76 0.64 0.57 0.57 0.76 0.59 0.31 0.25 0.13 0.06 0.07 0.09 0.12 0.18
0.61 1.41 2.02 2.43 1.66 2.17 2.64 2.17 1.58 1.03 0.91 0.97 0.92 1.00 1.06 1.27 1.38 1.45 1.56 1.46 1.50 1.32 1.16 1.23 1.33 1.09 0.88 0.72 0.62 0.71 0.83 0.81 0.62 0.62 0.53 0.26 0.17 0.09 0.06 0.06 0.09 0.11 0.12

GFSSE_prec_precacc_120.txt.gz
Total_Precipitation_Accumulation
0.00 0.03 0.14 0.20 0.17 0.15 0.11 0.06 0.06 0.06 0.06 0.07 0.08 0.10 0.14 0.07 0.10 0.11 0.12 0.08 0.06 0.05 0.05 0.07 0.05 0.18 0.40 0.23 0.11 0.05 0.03 0.02 0.02 0.01 0.01 0.04 0.07 0.07 0.05 0.05 0.06 0.07 0.11
0.00 0.02 0.09 0.18 0.16 0.15 0.14 0.10 0.06 0.05 0.08 0.10 0.10 0.10 0.13 0.14 0.10 0.05 0.06 0.07 0.06 0.03 0.05 0.12 0.21 0.24 0.46 0.27 0.07 0.03 0.02 0.02 0.00 0.00 0.01 0.01 0.04 0.06 0.02 0.02 0.09 0.08 0.10
0.00 0.02 0.05 0.13 0.14 0.13 0.12 0.12 0.06 0.05 0.08 0.11 0.10 0.14 0.18 0.10 0.04 0.05 0.05 0.05 0.06 0.06 0.12 0.16 0.21 0.24 0.33 0.12 0.06 0.04 0.02 0.00 0.00 0.01 0.02 0.04 0.10 0.20 0.10 0.07 0.13 0.11 0.10
0.01 0.02 0.05 0.08 0.11 0.12 0.13 0.09 0.05 0.06 0.11 0.12 0.13 0.19 0.23 0.09 0.06 0.05 0.02 0.03 0.04 0.06 0.13 0.16 0.18 0.24 0.12 0.05 0.07 0.03 0.01 0.00 0.00 0.00 0.00 0.01 0.03 0.14 0.19 0.20 0.20 0.16 0.11
0.01 0.02 0.06 0.07 0.09 0.13 0.10 0.09 0.06 0.09 0.14 0.14 0.16 0.19 0.21 0.14 0.08 0.02 0.02 0.04 0.05 0.06 0.09 0.16 0.19 0.09 0.01 0.00 0.01 0.01 0.01 0.01 0.00 0.00 0.01 0.02 0.06 0.16 0.16 0.16 0.17 0.24 0.24
0.02 0.02 0.07 0.07 0.10 0.11 0.09 0.09 0.09 0.11 0.11 0.12 0.14 0.13 0.17 0.14 0.10 0.02 0.02 0.04 0.05 0.05 0.08 0.12 0.05 0.01 0.00 0.00 0.00 0.00 0.00 0.01 0.00 0.00 0.01 0.05 0.06 0.20 0.20 0.08 0.11 0.21 0.28
0.03 0.04 0.08 0.08 0.08 0.08 0.08 0.07 0.09 0.12 0.11 0.12 0.10 0.10 0.13 0.13 0.16 0.04 0.03 0.03 0.04 0.05 0.04 0.02 0.00 0.00 0.00 0.00 0.00 0.01 0.01 0.00 0.00 0.00 0.01 0.02 0.04 0.11 0.08 0.07 0.04 0.06 0.08
0.07 0.07 0.08 0.10 0.10 0.11 0.08 0.07 0.09 0.08 0.11 0.14 0.12 0.10 0.09 0.08 0.13 0.06 0.03 0.04 0.03 0.02 0.01 0.00 0.00 0.00 0.00 0.00 0.01 0.01 0.01 0.00 0.00 0.00 0.00 0.01 0.03 0.02 0.03 0.03 0.03 0.03 0.04
0.27 0.33 0.24 0.11 0.10 0.11 0.10 0.08 0.07 0.07 0.10 0.14 0.13 0.09 0.04 0.04 0.07 0.07 0.05 0.06 0.03 0.02 0.02 0.02 0.02 0.02 0.02 0.01 0.01 0.00 0.00 0.00 0.00 0.00 0.00 0.00 0.01 0.02 0.02 0.04 0.07 0.07 0.09
0.28 0.39 0.33 0.12 0.11 0.12 0.11 0.08 0.07 0.06 0.06 0.10 0.07 0.02 0.00 0.00 0.04 0.08 0.05 0.06 0.04 0.02 0.01 0.02 0.02 0.02 0.02 0.02 0.01 0.00 0.00 0.00 0.00 0.00 0.00 0.00 0.00 0.02 0.06 0.08 0.08 0.11 0.16
0.42 0.48 0.39 0.13 0.07 0.08 0.09 0.08 0.08 0.07 0.05 0.03 0.01 0.00 0.00 0.00 0.01 0.02 0.03 0.05 0.05 0.02 0.00 0.01 0.01 0.01 0.01 0.01 0.00 0.00 0.00 0.00 0.00 0.00 0.00 0.00 0.00 0.02 0.04 0.08 0.11 0.12 0.13
0.53 0.53 0.56 0.19 0.06 0.07 0.07 0.09 0.13 0.10 0.04 0.02 0.00 0.00 0.00 0.00 0.01 0.02 0.02 0.04 0.05 0.01 0.00 0.00 0.00 0.00 0.00 0.00 0.00 0.00 0.00 0.00 0.00 0.00 0.00 0.00 0.00 0.02 0.03 0.04 0.06 0.06 0.04
0.65 0.55 0.50 0.50 0.16 0.06 0.05 0.10 0.12 0.09 0.04 0.01 0.00 0.00 0.00 0.00 0.02 0.03 0.03 0.03 0.02 0.00 0.00 0.00 0.00 0.00 0.00 0.00 0.00 0.00 0.00 0.00 0.00 0.00 0.00 0.00 0.01 0.01 0.01 0.03 0.03 0.04 0.03
1.55 0.85 0.80 0.68 0.94 0.20 0.05 0.07 0.06 0.07 0.02 0.01 0.00 0.00 0.00 0.01 0.01 0.02 0.01 0.01 0.01 0.00 0.00 0.00 0.00 0.00 0.00 0.00 0.00 0.00 0.00 0.00 0.00 0.00 0.00 0.00 0.00 0.01 0.01 0.01 0.02 0.03 0.03
1.91 1.43 1.08 1.15 1.19 0.72 0.09 0.04 0.06 0.08 0.02 0.01 0.00 0.00 0.00 0.00 0.00 0.01 0.00 0.00 0.00 0.00 0.00 0.00 0.00 0.00 0.00 0.00 0.00 0.00 0.00 0.00 0.00 0.00 0.00 0.00 0.00 0.00 0.00 0.01 0.01 0.01 0.04
2.48 2.07 1.48 1.47 1.25 0.81 0.30 0.07 0.06 0.03 0.01 0.01 0.00 0.00 0.00 0.00 0.00 0.00 0.00 0.00 0.00 0.00 0.00 0.00 0.00 0.00 0.00 0.00 0.00 0.00 0.00 0.00 0.00 0.00 0.00 0.00 0.00 0.00 0.00 0.01 0.03 0.01 0.02
1.89 1.96 1.89 1.23 1.28 0.86 0.67 0.21 0.16 0.08 0.04 0.02 0.00 0.00 0.00 0.00 0.00 0.00 0.00 0.00 0.00 0.00 0.00 0.00 0.00 0.00 0.00 0.00 0.00 0.00 0.00 0.00 0.00 0.00 0.00 0.00 0.00 0.00 0.00 0.03 0.21 0.19 0.08
1.43 1.66 1.67 1.39 0.92 0.92 0.50 0.31 0.26 0.16 0.08 0.04 0.01 0.00 0.00 0.00 0.00 0.00 0.00 0.00 0.00 0.00 0.00 0.00 0.00 0.00 0.00 0.00 0.00 0.00 0.00 0.00 0.00 0.00 0.00 0.00 0.00 0.00 0.00 0.00 0.08 0.22 0.24
1.31 1.37 1.56 1.07 0.71 0.78 0.53 0.49 0.39 0.28 0.10 0.09 0.04 0.01 0.01 0.00 0.00 0.00 0.00 0.00 0.00 0.00 0.00 0.00 0.00 0.00 0.00 0.00 0.00 0.00 0.00 0.00 0.00 0.00 0.00 0.00 0.00 0.00 0.00 0.00 0.00 0.02 0.09
1.67 1.72 2.02 1.60 0.87 0.73 0.75 0.74 0.62 0.38 0.17 0.15 0.16 0.08 0.12 0.03 0.04 0.00 0.00 0.00 0.00 0.00 0.00 0.00 0.00 0.00 0.00 0.00 0.00 0.00 0.00 0.00 0.00 0.00 0.00 0.00 0.00 0.00 0.00 0.00 0.00 0.00 0.00
1.74 1.93 2.52 2.25 1.45 1.15 0.65 0.45 0.50 0.44 0.56 0.46 0.46 0.41 0.29 0.14 0.13 0.06 0.01 0.00 0.00 0.00 0.00 0.00 0.00 0.00 0.00 0.00 0.00 0.00 0.00 0.00 0.00 0.00 0.00 0.00 0.00 0.00 0.00 0.01 0.03 0.06 0.03
1.81 1.56 2.36 2.69 1.30 0.95 0.94 0.80 0.78 0.90 0.67 0.91 1.00 0.63 0.66 0.56 0.56 0.25 0.10 0.11 0.04 0.01 0.01 0.00 0.01 0.01 0.01 0.01 0.02 0.04 0.03 0.01 0.00 0.00 0.01 0.00 0.00 0.01 0.03 0.07 0.12 0.12 0.07
2.56 1.51 2.00 3.09 2.20 1.20 1.24 1.83 1.76 1.56 1.08 1.04 0.77 0.85 1.18 1.32 1.22 0.84 0.64 0.54 0.39 0.26 0.35 0.28 0.32 0.30 0.23 0.22 0.18 0.23 0.23 0.19 0.14 0.05 0.05 0.05 0.08 0.07 0.07 0.05 0.05 0.05 0.04
2.02 1.91 1.84 2.63 3.52 1.66 1.34 1.32 1.17 1.02 1.15 0.92 1.11 1.23 1.07 1.07 1.17 1.43 1.44 1.22 1.05 0.99 0.90 0.98 0.83 0.91 0.98 0.85 0.72 0.57 0.57 0.45 0.41 0.23 0.07 0.08 0.07 0.06 0.06 0.03 0.03 0.05 0.09
0.96 2.00 1.93 2.58 2.71 3.40 1.93 1.49 1.15 0.93 0.83 0.82 0.78 0.79 0.87 0.93 1.01 1.17 1.27 1.44 1.52 1.62 1.57 1.62 1.60 1.48 1.30 1.07 0.85 0.77 0.64 0.57 0.57 0.76 0.59 0.31 0.25 0.13 0.06 0.07 0.09 0.12 0.18
0.62 1.41 2.07 2.60 2.15 3.40 3.28 2.58 1.74 1.05 0.97 0.99 0.92 1.00 1.07 1.27 1.38 1.45 1.56 1.46 1.50 1.32 1.16 1.23 1.34 1.10 0.89 0.72 0.63 0.71 0.83 0.82 0.62 0.62 0.53 0.26 0.17 0.09 0.06 0.06 0.09 0.11 0.12

GFSSE_prec_precacc_126.txt.gz
Total_Precipitation_Accumulation
0.00 0.03 0.14 0.20 0.17 0.15 0.11 0.06 0.06 0.07 0.06 0.07 0.08 0.10 0.14 0.07 0.10 0.11 0.12 0.08 0.07 0.06 0.05 0.07 0.07 0.20 0.43 0.25 0.14 0.07 0.03 0.03 0.02 0.01 0.01 0.05 0.07 0.07 0.05 0.05 0.06 0.07 0.11
0.00 0.02 0.09 0.18 0.17 0.15 0.15 0.10 0.07 0.05 0.08 0.10 0.11 0.10 0.13 0.14 0.10 0.05 0.06 0.07 0.06 0.03 0.06 0.15 0.23 0.26 0.47 0.27 0.07 0.03 0.02 0.02 0.00 0.00 0.01 0.01 0.04 0.06 0.02 0.02 0.09 0.08 0.10
0.00 0.02 0.05 0.13 0.14 0.13 0.12 0.12 0.06 0.05 0.08 0.11 0.10 0.14 0.19 0.10 0.05 0.05 0.06 0.06 0.07 0.08 0.16 0.19 0.23 0.25 0.33 0.12 0.07 0.04 0.02 0.01 0.01 0.01 0.02 0.04 0.10 0.20 0.11 0.07 0.13 0.11 0.10
0.01 0.02 0.05 0.08 0.11 0.13 0.13 0.09 0.06 0.06 0.11 0.13 0.13 0.21 0.25 0.10 0.07 0.06 0.03 0.03 0.07 0.10 0.16 0.18 0.19 0.24 0.12 0.05 0.07 0.03 0.01 0.00 0.00 0.00 0.00 0.01 0.03 0.14 0.19 0.20 0.20 0.17 0.11
0.01 0.02 0.06 0.07 0.09 0.14 0.11 0.10 0.07 0.11 0.14 0.14 0.17 0.23 0.24 0.18 0.09 0.03 0.02 0.05 0.07 0.08 0.11 0.17 0.19 0.09 0.01 0.00 0.01 0.01 0.01 0.01 0.00 0.00 0.01 0.02 0.06 0.16 0.17 0.16 0.17 0.24 0.24
0.02 0.02 0.07 0.07 0.11 0.12 0.10 0.10 0.10 0.12 0.12 0.12 0.15 0.16 0.20 0.18 0.15 0.04 0.03 0.04 0.06 0.06 0.08 0.12 0.05 0.01 0.00 0.00 0.00 0.00 0.00 0.01 0.00 0.00 0.01 0.05 0.06 0.20 0.20 0.08 0.11 0.21 0.29
0.03 0.04 0.08 0.08 0.08 0.09 0.09 0.08 0.11 0.14 0.12 0.12 0.11 0.12 0.17 0.16 0.21 0.04 0.03 0.03 0.04 0.05 0.04 0.02 0.00 0.00 0.00 0.00 0.00 0.01 0.01 0.00 0.00 0.00 0.01 0.02 0.04 0.11 0.08 0.07 0.04 0.07 0.08
0.09 0.07 0.08 0.10 0.10 0.11 0.08 0.09 0.10 0.10 0.12 0.14 0.13 0.12 0.14 0.12 0.18 0.06 0.04 0.04 0.03 0.02 0.01 0.00 0.00 0.00 0.00 0.00 0.01 0.01 0.01 0.00 0.00 0.00 0.00 0.01 0.04 0.02 0.03 0.03 0.03 0.04 0.04
0.32 0.34 0.24 0.11 0.10 0.11 0.10 0.08 0.09 0.08 0.11 0.14 0.15 0.11 0.08 0.11 0.09 0.08 0.06 0.06 0.03 0.02 0.02 0.02 0.02 0.02 0.02 0.01 0.01 0.00 0.00 0.00 0.00 0.00 0.00 0.00 0.01 0.02 0.02 0.04 0.07 0.07 0.09
0.52 0.54 0.46 0.15 0.11 0.12 0.11 0.08 0.08 0.07 0.08 0.11 0.09 0.03 0.01 0.07 0.05 0.09 0.05 0.06 0.04 0.02 0.01 0.02 0.02 0.02 0.02 0.02 0.01 0.00 0.00 0.00 0.00 0.00 0.00 0.00 0.00 0.02 0.06 0.08 0.08 0.11 0.16
0.77 0.80 0.64 0.25 0.09 0.08 0.09 0.09 0.09 0.09 0.07 0.06 0.03 0.01 0.01 0.02 0.02 0.02 0.03 0.05 0.05 0.02 0.00 0.01 0.01 0.01 0.01 0.01 0.00 0.00 0.00 0.00 0.00 0.00 0.00 0.00 0.00 0.02 0.04 0.08 0.11 0.12 0.13
0.79 0.86 0.91 0.52 0.23 0.10 0.07 0.09 0.14 0.13 0.08 0.05 0.01 0.01 0.00 0.00 0.01 0.02 0.02 0.04 0.05 0.01 0.00 0.00 0.00 0.00 0.00 0.00 0.00 0.00 0.00 0.00 0.00 0.00 0.00 0.00 0.00 0.02 0.03 0.04 0.06 0.06 0.04
0.78 0.79 0.86 0.93 0.60 0.38 0.12 0.11 0.13 0.12 0.06 0.03 0.02 0.01 0.00 0.00 0.02 0.03 0.03 0.03 0.02 0.00 0.00 0.00 0.00 0.00 0.00 0.00 0.00 0.00 0.00 0.00 0.00 0.00 0.00 0.00 0.01 0.01 0.01 0.03 0.03 0.04 0.03
1.62 0.97 1.00 1.01 1.30 0.63 0.47 0.21 0.07 0.10 0.03 0.02 0.02 0.01 0.00 0.01 0.02 0.02 0.01 0.01 0.01 0.00 0.00 0.00 0.00 0.00 0.00 0.00 0.00 0.00 0.00 0.00 0.00 0.00 0.00 0.00 0.00 0.01 0.01 0.01 0.02 0.03 0.03
1.93 1.50 1.12 1.33 1.55 1.52 0.95 0.49 0.14 0.09 0.02 0.02 0.02 0.01 0.00 0.00 0.01 0.01 0.00 0.00 0.00 0.00 0.00 0.00 0.00 0.00 0.00 0.00 0.00 0.00 0.00 0.00 0.00 0.00 0.00 0.00 0.00 0.00 0.00 0.01 0.01 0.01 0.04
2.48 2.11 1.52 1.51 1.40 1.46 1.71 1.12 0.30 0.08 0.03 0.06 0.03 0.00 0.00 0.00 0.00 0.00 0.00 0.00 0.00 0.00 0.00 0.00 0.00 0.00 0.00 0.00 0.00 0.00 0.00 0.00 0.00 0.00 0.00 0.00 0.00 0.00 0.00 0.01 0.03 0.01 0.02
1.89 1.98 1.95 1.25 1.30 1.03 1.86 1.63 1.04 0.26 0.10 0.09 0.05 0.00 0.00 0.00 0.00 0.00 0.00 0.00 0.00 0.00 0.00 0.00 0.00 0.00 0.00 0.00 0.00 0.00 0.00 0.00 0.00 0.00 0.00 0.00 0.00 0.00 0.00 0.03 0.21 0.19 0.08
1.43 1.66 1.73 1.45 0.94 0.94 0.99 1.94 1.39 0.75 0.25 0.18 0.09 0.01 0.00 0.00 0.00 0.00 0.00 0.00 0.00 0.00 0.00 0.00 0.00 0.00 0.00 0.00 0.00 0.00 0.00 0.00 0.00 0.00 0.00 0.00 0.00 0.00 0.00 0.00 0.09 0.26 0.29
1.31 1.37 1.58 1.13 0.74 0.81 0.75 1.43 1.50 1.25 0.48 0.30 0.15 0.04 0.03 0.01 0.00 0.00 0.00 0.00 0.00 0.00 0.00 0.00 0.00 0.00 0.00 0.00 0.00 0.00 0.00 0.00 0.00 0.00 0.00 0.00 0.00 0.00 0.00 0.00 0.00 0.03 0.13
1.67 1.72 2.02 1.65 1.04 0.79 0.86 1.09 1.37 1.25 1.01 0.47 0.30 0.13 0.14 0.04 0.04 0.00 0.00 0.00 0.00 0.00 0.00 0.00 0.00 0.00 0.00 0.00 0.00 0.00 0.00 0.00 0.00 0.00 0.00 0.00 0.00 0.00 0.00 0.00 0.00 0.00 0.00
1.74 1.93 2.53 2.34 2.00 1.28 0.75 0.63 0.77 1.06 1.14 0.92 0.69 0.51 0.32 0.18 0.13 0.06 0.01 0.00 0.00 0.00 0.00 0.00 0.00 0.00 0.00 0.00 0.00 0.00 0.00 0.00 0.00 0.00 0.00 0.00 0.00 0.00 0.00 0.01 0.03 0.06 0.03
1.81 1.56 2.36 2.77 2.01 1.48 1.04 0.86 0.89 1.06 0.96 1.12 1.20 0.81 0.70 0.59 0.57 0.25 0.10 0.11 0.04 0.01 0.01 0.00 0.01 0.01 0.01 0.01 0.02 0.04 0.03 0.01 0.00 0.00 0.01 0.00 0.00 0.01 0.03 0.07 0.12 0.12 0.07
2.58 1.53 2.00 3.12 2.62 1.98 1.65 1.90 1.85 1.75 1.28 1.22 1.01 1.06 1.27 1.34 1.22 0.84 0.64 0.54 0.39 0.26 0.35 0.28 0.32 0.30 0.23 0.22 0.18 0.23 0.23 0.19 0.14 0.05 0.05 0.05 0.08 0.07 0.07 0.05 0.05 0.05 0.04
2.03 1.93 1.86 2.68 3.89 2.35 2.14 1.75 1.26 1.21 1.36 1.04 1.25 1.42 1.17 1.09 1.18 1.43 1.44 1.22 1.05 0.99 0.90 0.98 0.83 0.91 0.98 0.85 0.72 0.57 0.57 0.45 0.41 0.23 0.07 0.08 0.07 0.06 0.06 0.03 0.03 0.05 0.09
0.98 2.02 1.96 2.64 2.95 4.33 2.94 2.29 1.42 1.01 0.96 0.91 0.84 0.85 0.94 0.95 1.01 1.17 1.27 1.44 1.52 1.62 1.57 1.62 1.60 1.48 1.30 1.07 0.85 0.77 0.64 0.57 0.57 0.76 0.59 0.31 0.25 0.13 0.06 0.07 0.09 0.12 0.18
0.68 1.47 2.11 2.64 2.34 4.06 4.47 3.78 2.34 1.30 1.08 1.23 1.00 1.07 1.11 1.30 1.38 1.46 1.56 1.46 1.50 1.32 1.16 1.23 1.34 1.10 0.89 0.72 0.63 0.71 0.83 0.82 0.62 0.62 0.53 0.26 0.17 0.09 0.06 0.06 0.09 0.11 0.12

GFSSE_prec_precacc_129.txt.gz
Total_Precipitation_Accumulation
0.00 0.03 0.14 0.20 0.18 0.15 0.11 0.06 0.06 0.07 0.06 0.07 0.08 0.10 0.14 0.07 0.10 0.11 0.12 0.09 0.07 0.06 0.05 0.08 0.08 0.23 0.45 0.27 0.16 0.09 0.04 0.03 0.02 0.01 0.01 0.05 0.07 0.07 0.05 0.05 0.06 0.07 0.11
0.00 0.02 0.09 0.18 0.17 0.15 0.15 0.10 0.07 0.05 0.08 0.10 0.11 0.10 0.13 0.14 0.10 0.05 0.06 0.08 0.06 0.03 0.07 0.16 0.24 0.28 0.48 0.28 0.08 0.03 0.02 0.02 0.00 0.00 0.01 0.01 0.04 0.06 0.02 0.02 0.10 0.08 0.10
0.00 0.02 0.05 0.13 0.15 0.13 0.12 0.12 0.06 0.05 0.08 0.11 0.10 0.14 0.19 0.10 0.05 0.05 0.06 0.06 0.07 0.09 0.18 0.20 0.24 0.26 0.34 0.12 0.07 0.04 0.02 0.01 0.01 0.01 0.02 0.04 0.10 0.20 0.11 0.07 0.13 0.11 0.10
0.01 0.02 0.05 0.09 0.12 0.13 0.14 0.09 0.06 0.06 0.12 0.13 0.13 0.21 0.25 0.10 0.07 0.06 0.03 0.04 0.08 0.10 0.16 0.19 0.20 0.25 0.12 0.05 0.07 0.03 0.01 0.00 0.00 0.00 0.00 0.01 0.03 0.14 0.19 0.20 0.20 0.17 0.11
0.01 0.02 0.06 0.08 0.10 0.15 0.11 0.10 0.07 0.11 0.14 0.14 0.17 0.23 0.25 0.19 0.10 0.03 0.02 0.07 0.07 0.08 0.11 0.17 0.20 0.09 0.01 0.00 0.01 0.01 0.01 0.01 0.00 0.00 0.01 0.02 0.06 0.16 0.17 0.16 0.17 0.24 0.25
0.02 0.02 0.07 0.07 0.11 0.13 0.10 0.10 0.10 0.12 0.12 0.12 0.16 0.17 0.22 0.21 0.16 0.04 0.03 0.05 0.06 0.06 0.08 0.12 0.05 0.01 0.00 0.00 0.00 0.00 0.00 0.01 0.00 0.00 0.01 0.05 0.06 0.20 0.20 0.08 0.11 0.21 0.29
0.03 0.04 0.08 0.09 0.08 0.09 0.09 0.09 0.12 0.14 0.12 0.12 0.12 0.13 0.18 0.19 0.24 0.05 0.03 0.03 0.04 0.05 0.04 0.02 0.00 0.00 0.00 0.00 0.00 0.01 0.01 0.00 0.00 0.00 0.01 0.02 0.04 0.11 0.08 0.07 0.04 0.07 0.08
0.15 0.08 0.08 0.11 0.11 0.11 0.08 0.09 0.12 0.11 0.13 0.14 0.13 0.14 0.17 0.15 0.21 0.06 0.04 0.04 0.03 0.02 0.01 0.00 0.00 0.00 0.00 0.00 0.01 0.01 0.01 0.00 0.00 0.00 0.00 0.01 0.04 0.03 0.03 0.03 0.03 0.04 0.04
0.53 0.47 0.28 0.12 0.14 0.14 0.11 0.08 0.09 0.09 0.12 0.15 0.16 0.13 0.11 0.13 0.11 0.08 0.06 0.06 0.03 0.02 0.02 0.02 0.02 0.02 0.02 0.01 0.01 0.00 0.00 0.00 0.00 0.00 0.00 0.00 0.01 0.02 0.02 0.04 0.07 0.07 0.09
0.68 0.77 0.73 0.29 0.17 0.19 0.16 0.11 0.09 0.07 0.10 0.11 0.10 0.04 0.02 0.08 0.06 0.09 0.05 0.06 0.04 0.02 0.01 0.02 0.02 0.02 0.02 0.02 0.01 0.00 0.00 0.00 0.00 0.00 0.00 0.00 0.00 0.02 0.06 0.08 0.08 0.11 0.16
0.82 0.93 0.82 0.46 0.28 0.15 0.15 0.19 0.21 0.15 0.10 0.07 0.03 0.01 0.02 0.03 0.02 0.02 0.03 0.05 0.05 0.02 0.00 0.01 0.01 0.01 0.01 0.01 0.00 0.00 0.00 0.00 0.00 0.00 0.00 0.00 0.00 0.02 0.04 0.08 0.11 0.12 0.13
0.79 0.89 1.04 0.72 0.43 0.29 0.21 0.20 0.25 0.27 0.15 0.05 0.01 0.02 0.01 0.00 0.01 0.02 0.02 0.04 0.05 0.01 0.00 0.00 0.00 0.00 0.00 0.00 0.00 0.00 0.00 0.00 0.00 0.00 0.00 0.00 0.00 0.02 0.03 0.04 0.06 0.06 0.04
0.78 0.79 0.87 1.03 0.77 0.56 0.35 0.28 0.22 0.18 0.13 0.06 0.03 0.01 0.00 0.00 0.02 0.03 0.03 0.03 0.02 0.00 0.00 0.00 0.00 0.00 0.00 0.00 0.00 0.00 0.00 0.00 0.00 0.00 0.00 0.00 0.01 0.01 0.01 0.03 0.03 0.04 0.03
1.62 0.97 1.00 1.04 1.42 0.83 0.63 0.45 0.14 0.13 0.05 0.04 0.03 0.01 0.00 0.01 0.02 0.02 0.01 0.01 0.01 0.00 0.00 0.00 0.00 0.00 0.00 0.00 0.00 0.00 0.00 0.00 0.00 0.00 0.00 0.00 0.00 0.01 0.01 0.01 0.02 0.03 0.03
1.93 1.50 1.12 1.33 1.57 1.67 1.16 0.69 0.26 0.10 0.03 0.04 0.03 0.01 0.00 0.00 0.01 0.01 0.00 0.00 0.00 0.00 0.00 0.00 0.00 0.00 0.00 0.00 0.00 0.00 0.00 0.00 0.00 0.00 0.00 0.00 0.00 0.00 0.00 0.01 0.01 0.01 0.04
2.48 2.11 1.52 1.51 1.40 1.48 1.84 1.33 0.42 0.17 0.03 0.08 0.04 0.00 0.00 0.00 0.00 0.00 0.00 0.00 0.00 0.00 0.00 0.00 0.00 0.00 0.00 0.00 0.00 0.00 0.00 0.00 0.00 0.00 0.00 0.00 0.00 0.00 0.00 0.01 0.03 0.01 0.02
1.89 1.98 1.95 1.25 1.30 1.03 1.90 1.83 1.19 0.35 0.15 0.12 0.10 0.00 0.00 0.00 0.00 0.00 0.00 0.00 0.00 0.00 0.00 0.00 0.00 0.00 0.00 0.00 0.00 0.00 0.00 0.00 0.00 0.00 0.00 0.00 0.00 0.00 0.00 0.03 0.21 0.19 0.08
1.43 1.66 1.73 1.45 0.94 0.94 0.99 2.02 1.74 0.93 0.37 0.28 0.20 0.03 0.01 0.00 0.00 0.00 0.00 0.00 0.00 0.00 0.00 0.00 0.00 0.00 0.00 0.00 0.00 0.00 0.00 0.00 0.00 0.00 0.00 0.00 0.00 0.00 0.00 0.00 0.10 0.28 0.35
1.31 1.37 1.58 1.13 0.74 0.81 0.75 1.43 1.74 1.85 0.86 0.43 0.26 0.13 0.08 0.03 0.00 0.00 0.00 0.00 0.00 0.00 0.00 0.00 0.00 0.00 0.00 0.00 0.00 0.00 0.00 0.00 0.00 0.00 0.00 0.00 0.00 0.00 0.00 0.00 0.00 0.05 0.16
1.67 1.72 2.02 1.65 1.04 0.79 0.86 1.09 1.37 1.36 1.46 0.97 0.45 0.22 0.24 0.12 0.05 0.01 0.00 0.00 0.00 0.00 0.00 0.00 0.00 0.00 0.00 0.00 0.00 0.00 0.00 0.00 0.00 0.00 0.00 0.00 0.00 0.00 0.00 0.00 0.00 0.00 0.00
1.74 1.93 2.53 2.34 2.00 1.28 0.75 0.63 0.77 1.06 1.15 1.06 0.94 0.58 0.39 0.25 0.18 0.08 0.02 0.00 0.00 0.00 0.00 0.00 0.00 0.00 0.00 0.00 0.00 0.00 0.00 0.00 0.00 0.00 0.00 0.00 0.00 0.00 0.00 0.01 0.03 0.06 0.03
1.81 1.56 2.36 2.77 2.01 1.48 1.04 0.86 0.89 1.06 0.96 1.12 1.24 0.93 0.80 0.65 0.63 0.30 0.13 0.12 0.04 0.01 0.01 0.00 0.01 0.01 0.01 0.01 0.02 0.04 0.03 0.01 0.00 0.00 0.01 0.00 0.00 0.01 0.03 0.07 0.12 0.12 0.07
2.58 1.53 2.00 3.12 2.62 1.98 1.65 1.90 1.85 1.75 1.28 1.22 1.02 1.09 1.51 1.54 1.30 0.91 0.67 0.55 0.39 0.26 0.35 0.28 0.32 0.30 0.23 0.22 0.18 0.23 0.23 0.19 0.14 0.05 0.05 0.05 0.08 0.07 0.07 0.05 0.05 0.05 0.04
2.03 1.93 1.86 2.68 3.89 2.35 2.14 1.75 1.26 1.21 1.36 1.05 1.25 1.44 1.23 1.33 1.44 1.59 1.50 1.23 1.05 0.99 0.90 0.98 0.83 0.91 0.98 0.85 0.72 0.57 0.57 0.45 0.41 0.23 0.07 0.08 0.07 0.06 0.06 0.03 0.03 0.05 0.09
0.98 2.02 1.96 2.65 2.97 4.34 2.96 2.30 1.42 1.01 0.96 0.91 0.84 0.86 1.01 1.03 1.16 1.37 1.46 1.51 1.54 1.62 1.57 1.62 1.60 1.48 1.30 1.07 0.85 0.77 0.64 0.57 0.57 0.76 0.59 0.31 0.25 0.13 0.06 0.07 0.09 0.12 0.18
0.68 1.47 2.11 2.65 2.35 4.08 4.49 3.81 2.34 1.30 1.08 1.28 1.05 1.07 1.16 1.41 1.48 1.56 1.73 1.59 1.53 1.32 1.16 1.23 1.34 1.10 0.89 0.72 0.63 0.71 0.83 0.82 0.62 0.62 0.53 0.26 0.17 0.09 0.06 0.06 0.09 0.11 0.12

GFSSE_prec_precacc_132.txt.gz
Total_Precipitation_Accumulation
0.00 0.03 0.14 0.20 0.18 0.15 0.11 0.06 0.06 0.07 0.06 0.07 0.08 0.10 0.14 0.07 0.10 0.11 0.12 0.09 0.07 0.06 0.06 0.09 0.10 0.28 0.50 0.33 0.19 0.10 0.04 0.03 0.02 0.01 0.01 0.05 0.08 0.07 0.05 0.05 0.06 0.07 0.11
0.00 0.02 0.10 0.18 0.17 0.15 0.15 0.11 0.07 0.05 0.08 0.10 0.11 0.10 0.13 0.14 0.10 0.06 0.07 0.08 0.06 0.03 0.08 0.17 0.26 0.29 0.49 0.28 0.08 0.03 0.02 0.02 0.00 0.00 0.01 0.01 0.04 0.06 0.02 0.03 0.10 0.08 0.10
0.00 0.02 0.06 0.14 0.16 0.14 0.12 0.12 0.06 0.05 0.09 0.11 0.10 0.14 0.19 0.10 0.05 0.06 0.06 0.06 0.07 0.10 0.20 0.21 0.25 0.26 0.34 0.12 0.07 0.04 0.02 0.01 0.01 0.01 0.02 0.04 0.10 0.20 0.11 0.08 0.14 0.11 0.11
0.01 0.02 0.05 0.09 0.12 0.14 0.14 0.10 0.06 0.07 0.12 0.13 0.13 0.21 0.25 0.10 0.07 0.06 0.03 0.04 0.08 0.11 0.17 0.20 0.21 0.26 0.13 0.05 0.07 0.03 0.01 0.00 0.00 0.00 0.00 0.01 0.03 0.14 0.19 0.21 0.21 0.17 0.12
0.01 0.02 0.06 0.08 0.10 0.15 0.11 0.10 0.07 0.11 0.14 0.14 0.17 0.24 0.25 0.19 0.10 0.03 0.03 0.07 0.08 0.08 0.12 0.18 0.20 0.09 0.01 0.01 0.01 0.01 0.01 0.01 0.00 0.00 0.01 0.02 0.06 0.16 0.17 0.16 0.17 0.25 0.25
0.02 0.02 0.07 0.07 0.11 0.13 0.11 0.10 0.11 0.12 0.12 0.13 0.16 0.18 0.22 0.22 0.17 0.04 0.04 0.05 0.06 0.06 0.08 0.12 0.05 0.01 0.00 0.00 0.00 0.00 0.00 0.01 0.00 0.00 0.01 0.05 0.06 0.20 0.20 0.09 0.12 0.22 0.29
0.04 0.05 0.09 0.12 0.11 0.13 0.10 0.09 0.13 0.14 0.13 0.14 0.14 0.15 0.20 0.20 0.25 0.05 0.04 0.03 0.04 0.05 0.04 0.02 0.00 0.00 0.00 0.00 0.00 0.01 0.01 0.00 0.00 0.00 0.01 0.02 0.04 0.11 0.08 0.08 0.04 0.07 0.09
0.24 0.12 0.10 0.18 0.15 0.17 0.11 0.10 0.12 0.11 0.13 0.16 0.17 0.18 0.20 0.19 0.24 0.06 0.04 0.04 0.03 0.02 0.01 0.00 0.00 0.00 0.00 0.00 0.01 0.01 0.01 0.00 0.00 0.00 0.00 0.01 0.04 0.03 0.03 0.03 0.04 0.04 0.04
0.61 0.74 0.46 0.27 0.29 0.24 0.16 0.09 0.10 0.09 0.12 0.15 0.17 0.18 0.17 0.15 0.13 0.08 0.06 0.06 0.03 0.02 0.02 0.02 0.02 0.02 0.02 0.01 0.01 0.00 0.00 0.00 0.00 0.00 0.00 0.00 0.02 0.02 0.03 0.05 0.07 0.07 0.09
0.69 0.87 0.92 0.62 0.44 0.41 0.29 0.19 0.15 0.12 0.13 0.12 0.10 0.05 0.03 0.09 0.07 0.09 0.05 0.06 0.04 0.02 0.01 0.02 0.02 0.02 0.02 0.02 0.01 0.00 0.00 0.00 0.00 0.00 0.00 0.00 0.00 0.02 0.07 0.08 0.09 0.11 0.16
0.82 0.94 0.86 0.57 0.56 0.48 0.39 0.39 0.40 0.31 0.24 0.11 0.03 0.01 0.02 0.04 0.03 0.02 0.03 0.05 0.05 0.02 0.00 0.01 0.01 0.01 0.01 0.01 0.00 0.00 0.00 0.00 0.00 0.00 0.00 0.00 0.01 0.02 0.04 0.08 0.11 0.12 0.13
0.79 0.89 1.04 0.74 0.52 0.52 0.53 0.44 0.47 0.52 0.29 0.10 0.02 0.02 0.01 0.00 0.01 0.02 0.02 0.04 0.05 0.01 0.00 0.00 0.00 0.00 0.00 0.00 0.00 0.00 0.00 0.00 0.00 0.00 0.00 0.00 0.00 0.02 0.03 0.04 0.06 0.06 0.04
0.78 0.79 0.87 1.03 0.78 0.65 0.56 0.55 0.41 0.36 0.35 0.19 0.06 0.01 0.01 0.01 0.02 0.03 0.03 0.03 0.02 0.00 0.00 0.00 0.00 0.00 0.00 0.00 0.00 0.00 0.00 0.00 0.00 0.00 0.00 0.00 0.01 0.01 0.01 0.03 0.03 0.04 0.03
1.62 0.97 1.00 1.04 1.42 0.86 0.75 0.61 0.36 0.23 0.15 0.14 0.11 0.02 0.01 0.01 0.02 0.02 0.01 0.01 0.01 0.00 0.00 0.00 0.00 0.00 0.00 0.00 0.00 0.00 0.00 0.00 0.00 0.00 0.00 0.00 0.00 0.01 0.01 0.01 0.02 0.03 0.03
1.93 1.50 1.12 1.33 1.57 1.67 1.20 0.80 0.42 0.22 0.11 0.11 0.12 0.05 0.01 0.01 0.01 0.01 0.00 0.00 0.00 0.00 0.00 0.00 0.00 0.00 0.00 0.00 0.00 0.00 0.00 0.00 0.00 0.00 0.00 0.00 0.00 0.00 0.00 0.01 0.01 0.01 0.04
2.48 2.11 1.52 1.51 1.40 1.48 1.84 1.39 0.54 0.30 0.08 0.12 0.07 0.03 0.00 0.00 0.00 0.00 0.00 0.00 0.00 0.00 0.00 0.00 0.00 0.00 0.00 0.00 0.00 0.00 0.00 0.00 0.00 0.00 0.00 0.00 0.00 0.00 0.00 0.01 0.03 0.01 0.02
1.89 1.98 1.95 1.25 1.30 1.03 1.90 1.84 1.26 0.48 0.27 0.15 0.13 0.02 0.01 0.00 0.00 0.00 0.00 0.00 0.00 0.00 0.00 0.00 0.00 0.00 0.00 0.00 0.00 0.00 0.00 0.00 0.00 0.00 0.00 0.00 0.00 0.00 0.00 0.03 0.21 0.19 0.09
1.43 1.66 1.73 1.45 0.94 0.94 0.99 2.02 1.75 1.00 0.51 0.37 0.28 0.10 0.06 0.01 0.00 0.00 0.00 0.00 0.00 0.00 0.00 0.00 0.00 0.00 0.00 0.00 0.00 0.00 0.00 0.00 0.00 0.00 0.00 0.00 0.00 0.00 0.00 0.00 0.10 0.29 0.41
1.31 1.37 1.58 1.13 0.74 0.81 0.75 1.43 1.74 1.89 0.96 0.52 0.35 0.19 0.12 0.08 0.01 0.00 0.00 0.00 0.00 0.00 0.00 0.00 0.00 0.00 0.00 0.00 0.00 0.00 0.00 0.00 0.00 0.00 0.00 0.00 0.00 0.00 0.00 0.00 0.00 0.05 0.16
1.67 1.72 2.02 1.65 1.04 0.79 0.86 1.09 1.37 1.36 1.51 1.15 0.55 0.29 0.28 0.15 0.09 0.01 0.00 0.00 0.00 0.00 0.00 0.00 0.00 0.00 0.00 0.00 0.00 0.00 0.00 0.00 0.00 0.00 0.00 0.00 0.00 0.00 0.00 0.00 0.00 0.00 0.00
1.74 1.93 2.53 2.34 2.00 1.28 0.75 0.63 0.77 1.06 1.15 1.11 1.26 0.81 0.45 0.31 0.25 0.14 0.06 0.01 0.00 0.00 0.00 0.00 0.00 0.00 0.00 0.00 0.00 0.00 0.00 0.00 0.00 0.00 0.00 0.00 0.00 0.00 0.00 0.01 0.03 0.06 0.03
1.81 1.56 2.36 2.77 2.01 1.48 1.04 0.86 0.89 1.06 0.96 1.12 1.26 1.07 0.97 0.72 0.69 0.36 0.20 0.18 0.06 0.01 0.01 0.00 0.01 0.01 0.01 0.01 0.02 0.04 0.03 0.01 0.00 0.00 0.01 0.00 0.00 0.01 0.03 0.07 0.12 0.12 0.07
2.58 1.53 2.00 3.12 2.62 1.98 1.65 1.90 1.85 1.75 1.28 1.22 1.03 1.13 1.56 1.59 1.34 0.98 0.75 0.63 0.44 0.26 0.35 0.28 0.32 0.30 0.23 0.22 0.18 0.23 0.23 0.19 0.14 0.05 0.05 0.05 0.08 0.07 0.07 0.05 0.05 0.05 0.04
2.03 1.93 1.86 2.68 3.89 2.35 2.14 1.75 1.26 1.21 1.36 1.05 1.25 1.44 1.24 1.36 1.47 1.63 1.58 1.31 1.14 1.03 0.90 0.98 0.83 0.91 0.98 0.85 0.72 0.57 0.57 0.45 0.41 0.23 0.07 0.08 0.07 0.06 0.06 0.03 0.03 0.05 0.09
0.98 2.02 1.96 2.65 2.97 4.34 2.96 2.30 1.42 1.01 0.96 0.91 0.84 0.86 1.01 1.03 1.17 1.39 1.56 1.66 1.63 1.68 1.59 1.63 1.60 1.48 1.30 1.07 0.85 0.77 0.64 0.57 0.57 0.76 0.59 0.31 0.25 0.13 0.06 0.07 0.09 0.12 0.18
0.68 1.47 2.11 2.65 2.35 4.08 4.49 3.81 2.34 1.30 1.08 1.28 1.05 1.08 1.16 1.41 1.48 1.57 1.75 1.73 1.76 1.51 1.24 1.24 1.34 1.10 0.89 0.72 0.63 0.71 0.83 0.82 0.62 0.62 0.53 0.26 0.17 0.09 0.06 0.06 0.09 0.11 0.12

GFSSE_prec_precacc_138.txt.gz
Total_Precipitation_Accumulation
0.01 0.03 0.17 0.22 0.19 0.17 0.13 0.07 0.07 0.07 0.06 0.07 0.08 0.11 0.14 0.07 0.10 0.11 0.12 0.09 0.08 0.08 0.10 0.13 0.22 0.50 0.65 0.41 0.20 0.10 0.04 0.03 0.02 0.01 0.01 0.05 0.08 0.07 0.05 0.05 0.06 0.08 0.12
0.01 0.03 0.12 0.20 0.20 0.19 0.18 0.12 0.08 0.06 0.09 0.11 0.11 0.10 0.13 0.14 0.10 0.06 0.07 0.09 0.09 0.06 0.10 0.21 0.36 0.34 0.50 0.29 0.08 0.03 0.02 0.02 0.00 0.00 0.01 0.01 0.05 0.06 0.02 0.03 0.11 0.09 0.11
0.02 0.03 0.07 0.16 0.17 0.16 0.14 0.14 0.08 0.06 0.09 0.11 0.11 0.14 0.19 0.10 0.05 0.06 0.06 0.07 0.10 0.11 0.21 0.24 0.26 0.26 0.34 0.12 0.07 0.04 0.02 0.01 0.01 0.01 0.02 0.04 0.11 0.22 0.12 0.09 0.16 0.13 0.13
0.02 0.04 0.06 0.11 0.13 0.15 0.16 0.11 0.08 0.08 0.12 0.13 0.13 0.21 0.25 0.11 0.08 0.06 0.04 0.06 0.10 0.13 0.18 0.20 0.21 0.26 0.13 0.05 0.07 0.03 0.01 0.00 0.00 0.00 0.00 0.01 0.04 0.15 0.20 0.21 0.21 0.18 0.12
0.05 0.04 0.07 0.10 0.11 0.16 0.12 0.11 0.08 0.12 0.14 0.14 0.17 0.24 0.25 0.20 0.11 0.03 0.04 0.10 0.10 0.10 0.13 0.18 0.20 0.09 0.01 0.01 0.01 0.01 0.01 0.01 0.00 0.00 0.01 0.02 0.06 0.17 0.18 0.18 0.19 0.26 0.26
0.08 0.05 0.09 0.11 0.15 0.15 0.14 0.11 0.11 0.13 0.13 0.13 0.16 0.18 0.23 0.23 0.17 0.05 0.06 0.07 0.07 0.07 0.08 0.12 0.05 0.01 0.00 0.00 0.00 0.00 0.00 0.01 0.00 0.00 0.01 0.05 0.06 0.21 0.21 0.09 0.12 0.23 0.31
0.13 0.16 0.13 0.23 0.27 0.25 0.16 0.10 0.14 0.15 0.13 0.15 0.16 0.17 0.21 0.21 0.25 0.06 0.05 0.04 0.04 0.05 0.04 0.02 0.00 0.00 0.00 0.00 0.00 0.01 0.01 0.00 0.00 0.00 0.01 0.02 0.05 0.12 0.08 0.08 0.05 0.07 0.09
0.31 0.26 0.31 0.38 0.37 0.42 0.29 0.14 0.15 0.14 0.14 0.16 0.18 0.22 0.24 0.20 0.26 0.07 0.05 0.04 0.03 0.02 0.01 0.00 0.00 0.00 0.00 0.00 0.01 0.01 0.01 0.00 0.00 0.00 0.00 0.01 0.05 0.03 0.03 0.03 0.04 0.04 0.05
0.63 0.79 0.65 0.52 0.66 0.67 0.58 0.43 0.17 0.12 0.16 0.16 0.20 0.21 0.22 0.17 0.16 0.08 0.06 0.06 0.03 0.02 0.02 0.02 0.02 0.02 0.02 0.01 0.01 0.00 0.00 0.00 0.00 0.00 0.00 0.00 0.02 0.02 0.03 0.05 0.07 0.07 0.09
0.70 0.87 0.93 0.72 0.70 0.83 0.84 0.65 0.44 0.23 0.23 0.16 0.13 0.06 0.06 0.11 0.11 0.10 0.05 0.06 0.04 0.02 0.01 0.02 0.02 0.02 0.02 0.02 0.01 0.00 0.00 0.00 0.00 0.00 0.00 0.00 0.00 0.02 0.07 0.08 0.09 0.11 0.16
0.82 0.94 0.86 0.57 0.60 0.67 0.74 0.87 0.96 0.77 0.62 0.38 0.13 0.05 0.06 0.08 0.10 0.06 0.03 0.05 0.05 0.02 0.00 0.01 0.01 0.01 0.01 0.01 0.00 0.00 0.00 0.00 0.00 0.00 0.00 0.00 0.01 0.02 0.04 0.08 0.11 0.12 0.13
0.79 0.89 1.04 0.74 0.52 0.55 0.69 0.74 0.84 0.99 0.80 0.44 0.08 0.05 0.06 0.05 0.04 0.04 0.02 0.04 0.05 0.01 0.00 0.00 0.00 0.00 0.00 0.00 0.00 0.00 0.00 0.00 0.00 0.00 0.00 0.00 0.00 0.02 0.03 0.04 0.06 0.06 0.04
0.78 0.79 0.87 1.03 0.78 0.66 0.58 0.68 0.68 0.65 0.69 0.60 0.39 0.07 0.03 0.06 0.06 0.04 0.04 0.03 0.03 0.00 0.00 0.00 0.00 0.00 0.00 0.00 0.00 0.00 0.00 0.00 0.00 0.00 0.00 0.00 0.01 0.01 0.01 0.03 0.03 0.04 0.03
1.62 0.97 1.00 1.04 1.42 0.86 0.75 0.62 0.48 0.40 0.34 0.34 0.35 0.24 0.07 0.05 0.03 0.02 0.02 0.02 0.01 0.00 0.00 0.00 0.00 0.00 0.00 0.00 0.00 0.00 0.00 0.00 0.00 0.00 0.00 0.00 0.00 0.01 0.01 0.01 0.02 0.03 0.03
1.93 1.50 1.12 1.33 1.57 1.67 1.20 0.80 0.45 0.31 0.24 0.22 0.22 0.16 0.04 0.02 0.01 0.01 0.00 0.00 0.00 0.00 0.00 0.00 0.00 0.00 0.00 0.00 0.00 0.00 0.00 0.00 0.00 0.00 0.00 0.00 0.00 0.00 0.00 0.01 0.01 0.01 0.04
2.48 2.11 1.52 1.51 1.40 1.48 1.84 1.39 0.54 0.32 0.22 0.26 0.12 0.11 0.09 0.04 0.00 0.00 0.00 0.00 0.00 0.00 0.00 0.00 0.00 0.00 0.00 0.00 0.00 0.00 0.00 0.00 0.00 0.00 0.00 0.00 0.00 0.00 0.00 0.01 0.03 0.01 0.02
1.89 1.98 1.95 1.25 1.30 1.03 1.90 1.84 1.26 0.48 0.39 0.27 0.19 0.07 0.07 0.04 0.00 0.00 0.00 0.00 0.00 0.00 0.00 0.00 0.00 0.00 0.00 0.00 0.00 0.00 0.00 0.00 0.00 0.00 0.00 0.00 0.00 0.00 0.00 0.03 0.22 0.20 0.11
1.43 1.66 1.73 1.45 0.94 0.94 0.99 2.02 1.75 1.01 0.57 0.49 0.36 0.16 0.11 0.02 0.00 0.00 0.00 0.00 0.00 0.00 0.00 0.00 0.00 0.00 0.00 0.00 0.00 0.00 0.00 0.00 0.00 0.00 0.00 0.00 0.00 0.00 0.00 0.00 0.10 0.31 0.44
1.31 1.37 1.58 1.13 0.74 0.81 0.75 1.43 1.74 1.89 0.97 0.59 0.48 0.31 0.19 0.12 0.03 0.00 0.00 0.00 0.00 0.00 0.00 0.00 0.00 0.00 0.00 0.00 0.00 0.00 0.00 0.00 0.00 0.00 0.00 0.00 0.00 0.00 0.00 0.00 0.00 0.05 0.16
1.67 1.72 2.02 1.65 1.04 0.79 0.86 1.09 1.37 1.36 1.51 1.18 0.64 0.35 0.36 0.20 0.11 0.02 0.00 0.01 0.00 0.00 0.00 0.00 0.00 0.00 0.00 0.00 0.00 0.00 0.00 0.00 0.00 0.00 0.00 0.00 0.00 0.00 0.00 0.00 0.00 0.00 0.00
1.74 1.93 2.53 2.34 2.00 1.28 0.75 0.63 0.77 1.06 1.15 1.11 1.28 0.84 0.49 0.34 0.27 0.16 0.08 0.05 0.02 0.00 0.00 0.00 0.00 0.00 0.00 0.00 0.00 0.00 0.00 0.00 0.00 0.00 0.00 0.00 0.00 0.00 0.00 0.01 0.03 0.06 0.03
1.81 1.56 2.36 2.77 2.01 1.48 1.04 0.86 0.89 1.06 0.96 1.12 1.26 1.09 1.06 0.82 0.73 0.39 0.23 0.23 0.10 0.02 0.01 0.00 0.01 0.01 0.01 0.01 0.02 0.04 0.03 0.01 0.00 0.00 0.01 0.00 0.00 0.01 0.03 0.07 0.12 0.12 0.07
2.58 1.53 2.00 3.12 2.62 1.98 1.65 1.90 1.85 1.75 1.28 1.22 1.04 1.16 1.60 1.71 1.44 1.04 0.78 0.67 0.50 0.31 0.36 0.28 0.32 0.30 0.23 0.22 0.18 0.23 0.23 0.19 0.14 0.05 0.05 0.05 0.08 0.07 0.07 0.05 0.05 0.05 0.04
2.03 1.93 1.86 2.68 3.89 2.35 2.14 1.75 1.26 1.21 1.36 1.05 1.25 1.45 1.24 1.38 1.51 1.67 1.63 1.36 1.18 1.09 0.94 1.00 0.83 0.91 0.98 0.85 0.72 0.57 0.57 0.45 0.41 0.23 0.07 0.08 0.07 0.06 0.06 0.03 0.03 0.05 0.09
0.98 2.02 1.96 2.65 2.97 4.34 2.96 2.30 1.42 1.01 0.96 0.91 0.84 0.86 1.02 1.04 1.21 1.42 1.59 1.70 1.67 1.72 1.66 1.67 1.62 1.49 1.30 1.07 0.85 0.77 0.64 0.57 0.57 0.76 0.59 0.31 0.25 0.13 0.06 0.07 0.09 0.12 0.18
0.68 1.47 2.11 2.65 2.35 4.08 4.49 3.81 2.34 1.30 1.08 1.28 1.05 1.08 1.17 1.42 1.50 1.61 1.79 1.75 1.78 1.54 1.30 1.32 1.41 1.15 0.90 0.72 0.63 0.71 0.83 0.82 0.62 0.62 0.53 0.26 0.17 0.09 0.06 0.06 0.09 0.11 0.12

GFSSE_prec_precacc_141.txt.gz
Total_Precipitation_Accumulation
0.02 0.05 0.17 0.23 0.19 0.20 0.15 0.10 0.10 0.07 0.06 0.07 0.08 0.11 0.14 0.07 0.10 0.11 0.12 0.09 0.08 0.09 0.15 0.24 0.35 0.57 0.65 0.41 0.20 0.10 0.04 0.03 0.02 0.01 0.01 0.05 0.08 0.07 0.05 0.06 0.07 0.08 0.13
0.02 0.05 0.13 0.22 0.22 0.23 0.22 0.15 0.11 0.06 0.09 0.11 0.11 0.10 0.13 0.14 0.10 0.06 0.07 0.11 0.10 0.10 0.16 0.29 0.42 0.35 0.50 0.29 0.08 0.03 0.02 0.02 0.00 0.00 0.01 0.01 0.05 0.06 0.02 0.03 0.11 0.09 0.12
0.02 0.06 0.08 0.17 0.18 0.17 0.15 0.15 0.09 0.07 0.10 0.12 0.11 0.14 0.19 0.10 0.05 0.06 0.07 0.10 0.12 0.14 0.25 0.31 0.27 0.26 0.34 0.12 0.07 0.04 0.02 0.01 0.01 0.01 0.02 0.04 0.11 0.22 0.13 0.10 0.16 0.14 0.13
0.03 0.06 0.07 0.11 0.13 0.16 0.16 0.11 0.08 0.08 0.12 0.13 0.13 0.21 0.25 0.11 0.08 0.06 0.05 0.07 0.12 0.15 0.19 0.21 0.21 0.26 0.13 0.05 0.07 0.03 0.01 0.00 0.00 0.00 0.00 0.01 0.04 0.15 0.20 0.21 0.21 0.18 0.13
0.06 0.06 0.09 0.11 0.12 0.18 0.14 0.11 0.08 0.12 0.14 0.14 0.17 0.24 0.25 0.20 0.11 0.03 0.05 0.11 0.13 0.11 0.13 0.18 0.20 0.09 0.01 0.01 0.01 0.01 0.01 0.01 0.00 0.00 0.01 0.02 0.06 0.19 0.20 0.18 0.19 0.26 0.26
0.14 0.09 0.10 0.12 0.19 0.17 0.18 0.15 0.12 0.13 0.13 0.13 0.16 0.18 0.23 0.23 0.17 0.05 0.06 0.08 0.09 0.07 0.08 0.12 0.05 0.01 0.00 0.00 0.00 0.00 0.00 0.01 0.00 0.00 0.01 0.05 0.06 0.22 0.21 0.10 0.13 0.25 0.32
0.16 0.29 0.29 0.31 0.38 0.34 0.26 0.20 0.18 0.16 0.13 0.15 0.16 0.17 0.22 0.23 0.25 0.06 0.05 0.06 0.05 0.05 0.04 0.02 0.00 0.00 0.00 0.00 0.00 0.01 0.01 0.00 0.00 0.00 0.01 0.02 0.05 0.12 0.09 0.08 0.05 0.07 0.09
0.31 0.27 0.41 0.47 0.45 0.49 0.37 0.26 0.26 0.19 0.15 0.16 0.18 0.22 0.29 0.26 0.26 0.07 0.05 0.05 0.03 0.02 0.01 0.00 0.00 0.00 0.00 0.00 0.01 0.01 0.01 0.00 0.00 0.00 0.00 0.01 0.05 0.03 0.03 0.03 0.04 0.04 0.05
0.63 0.79 0.66 0.55 0.68 0.69 0.63 0.54 0.30 0.16 0.17 0.17 0.20 0.21 0.23 0.20 0.16 0.09 0.08 0.07 0.03 0.02 0.02 0.02 0.02 0.02 0.02 0.01 0.01 0.00 0.00 0.00 0.00 0.00 0.00 0.00 0.02 0.02 0.03 0.05 0.07 0.07 0.09
0.70 0.87 0.93 0.74 0.80 0.88 0.88 0.66 0.48 0.32 0.25 0.18 0.14 0.07 0.07 0.11 0.11 0.11 0.07 0.06 0.04 0.02 0.01 0.02 0.02 0.02 0.02 0.02 0.01 0.00 0.00 0.00 0.00 0.00 0.00 0.00 0.00 0.02 0.07 0.08 0.09 0.11 0.16
0.82 0.94 0.86 0.57 0.60 0.72 0.79 0.88 0.97 0.82 0.67 0.41 0.15 0.06 0.08 0.09 0.12 0.08 0.03 0.05 0.05 0.02 0.00 0.01 0.01 0.01 0.01 0.01 0.00 0.00 0.00 0.00 0.00 0.00 0.00 0.00 0.01 0.02 0.04 0.08 0.11 0.12 0.13
0.79 0.89 1.04 0.74 0.52 0.55 0.73 0.79 0.87 1.04 0.94 0.55 0.10 0.05 0.06 0.06 0.07 0.11 0.05 0.05 0.05 0.01 0.00 0.00 0.00 0.00 0.00 0.00 0.00 0.00 0.00 0.00 0.00 0.00 0.00 0.00 0.00 0.02 0.03 0.04 0.06 0.06 0.04
0.78 0.79 0.87 1.03 0.78 0.66 0.59 0.75 0.77 0.70 0.74 0.64 0.46 0.15 0.05 0.08 0.12 0.11 0.09 0.05 0.03 0.00 0.00 0.00 0.00 0.00 0.00 0.00 0.00 0.00 0.00 0.00 0.00 0.00 0.00 0.00 0.01 0.01 0.01 0.03 0.03 0.04 0.03
1.62 0.97 1.00 1.04 1.42 0.86 0.75 0.63 0.59 0.49 0.36 0.37 0.35 0.33 0.22 0.11 0.07 0.10 0.06 0.03 0.01 0.00 0.00 0.00 0.00 0.00 0.00 0.00 0.00 0.00 0.00 0.00 0.00 0.00 0.00 0.00 0.00 0.01 0.01 0.01 0.02 0.03 0.03
1.93 1.50 1.12 1.33 1.57 1.67 1.20 0.80 0.47 0.41 0.32 0.24 0.23 0.17 0.10 0.06 0.03 0.06 0.03 0.01 0.00 0.00 0.00 0.00 0.00 0.00 0.00 0.00 0.00 0.00 0.00 0.00 0.00 0.00 0.00 0.00 0.00 0.00 0.00 0.01 0.01 0.01 0.04
2.48 2.11 1.52 1.51 1.40 1.48 1.84 1.39 0.54 0.34 0.28 0.35 0.16 0.14 0.14 0.10 0.01 0.01 0.00 0.00 0.00 0.00 0.00 0.00 0.00 0.00 0.00 0.00 0.00 0.00 0.00 0.00 0.00 0.00 0.00 0.00 0.00 0.00 0.00 0.01 0.03 0.01 0.02
1.89 1.98 1.95 1.25 1.30 1.03 1.90 1.84 1.26 0.48 0.40 0.31 0.25 0.10 0.10 0.10 0.06 0.01 0.00 0.00 0.00 0.00 0.00 0.00 0.00 0.00 0.00 0.00 0.00 0.00 0.00 0.00 0.00 0.00 0.00 0.00 0.00 0.00 0.00 0.03 0.22 0.20 0.12
1.43 1.66 1.73 1.45 0.94 0.94 0.99 2.02 1.75 1.01 0.57 0.50 0.41 0.23 0.13 0.06 0.06 0.03 0.00 0.00 0.00 0.00 0.00 0.00 0.00 0.00 0.00 0.00 0.00 0.00 0.00 0.00 0.00 0.00 0.00 0.00 0.00 0.00 0.00 0.00 0.10 0.31 0.45
1.31 1.37 1.58 1.13 0.74 0.81 0.75 1.43 1.74 1.89 0.97 0.59 0.49 0.37 0.22 0.16 0.04 0.04 0.00 0.01 0.00 0.00 0.00 0.00 0.00 0.00 0.00 0.00 0.00 0.00 0.00 0.00 0.00 0.00 0.00 0.00 0.00 0.00 0.00 0.00 0.00 0.05 0.16
1.67 1.72 2.02 1.65 1.04 0.79 0.86 1.09 1.37 1.36 1.51 1.18 0.64 0.38 0.40 0.25 0.14 0.07 0.04 0.02 0.03 0.00 0.00 0.00 0.00 0.00 0.00 0.00 0.00 0.00 0.00 0.00 0.00 0.00 0.00 0.00 0.00 0.00 0.00 0.00 0.00 0.00 0.00
1.74 1.93 2.53 2.34 2.00 1.28 0.75 0.63 0.77 1.06 1.15 1.11 1.28 0.84 0.52 0.38 0.30 0.19 0.10 0.06 0.04 0.00 0.00 0.00 0.00 0.00 0.00 0.00 0.00 0.00 0.00 0.00 0.00 0.00 0.00 0.00 0.00 0.00 0.00 0.01 0.03 0.06 0.03
1.81 1.56 2.36 2.77 2.01 1.48 1.04 0.86 0.89 1.06 0.96 1.12 1.26 1.09 1.07 0.86 0.76 0.41 0.24 0.24 0.11 0.02 0.01 0.00 0.01 0.01 0.01 0.01 0.02 0.04 0.03 0.01 0.00 0.00 0.01 0.00 0.00 0.01 0.03 0.07 0.12 0.12 0.07
2.58 1.53 2.00 3.12 2.62 1.98 1.65 1.90 1.85 1.75 1.28 1.22 1.04 1.16 1.60 1.72 1.47 1.06 0.80 0.68 0.54 0.32 0.38 0.28 0.32 0.30 0.23 0.22 0.18 0.23 0.23 0.19 0.14 0.05 0.05 0.05 0.08 0.07 0.07 0.05 0.05 0.05 0.04
2.03 1.93 1.86 2.68 3.89 2.35 2.14 1.75 1.26 1.21 1.36 1.05 1.25 1.45 1.24 1.39 1.52 1.70 1.66 1.38 1.19 1.11 0.95 1.01 0.83 0.91 0.98 0.85 0.72 0.57 0.57 0.45 0.41 0.23 0.07 0.08 0.07 0.06 0.06 0.03 0.03 0.05 0.09
0.98 2.02 1.96 2.65 2.97 4.34 2.96 2.30 1.42 1.01 0.96 0.91 0.84 0.86 1.02 1.04 1.22 1.46 1.61 1.72 1.68 1.74 1.68 1.69 1.62 1.49 1.31 1.07 0.85 0.77 0.64 0.57 0.57 0.76 0.59 0.31 0.25 0.13 0.06 0.07 0.09 0.12 0.18
0.68 1.47 2.11 2.65 2.35 4.08 4.49 3.81 2.34 1.30 1.08 1.28 1.05 1.08 1.17 1.42 1.50 1.65 1.85 1.82 1.81 1.56 1.32 1.38 1.44 1.16 0.91 0.73 0.63 0.71 0.83 0.82 0.62 0.62 0.53 0.26 0.17 0.09 0.06 0.06 0.09 0.11 0.12

GFSSE_prec_precacc_144.txt.gz
Total_Precipitation_Accumulation
0.04 0.08 0.18 0.23 0.21 0.21 0.15 0.11 0.10 0.08 0.06 0.07 0.08 0.11 0.14 0.07 0.10 0.11 0.12 0.09 0.08 0.12 0.31 0.41 0.44 0.57 0.65 0.41 0.20 0.10 0.04 0.03 0.02 0.01 0.02 0.05 0.08 0.08 0.06 0.06 0.07 0.10 0.14
0.03 0.08 0.13 0.24 0.23 0.25 0.23 0.15 0.11 0.07 0.09 0.12 0.11 0.10 0.13 0.14 0.10 0.06 0.07 0.11 0.11 0.14 0.35 0.44 0.43 0.35 0.50 0.29 0.08 0.03 0.02 0.02 0.00 0.00 0.01 0.01 0.05 0.07 0.02 0.03 0.11 0.09 0.12
0.02 0.07 0.08 0.18 0.20 0.20 0.17 0.15 0.09 0.07 0.10 0.13 0.11 0.14 0.19 0.10 0.05 0.06 0.11 0.15 0.15 0.21 0.42 0.37 0.27 0.26 0.34 0.12 0.07 0.04 0.02 0.01 0.01 0.01 0.02 0.04 0.12 0.23 0.13 0.10 0.17 0.14 0.13
0.03 0.08 0.08 0.11 0.15 0.20 0.20 0.12 0.09 0.08 0.12 0.14 0.13 0.21 0.25 0.11 0.08 0.06 0.09 0.13 0.13 0.17 0.20 0.21 0.21 0.26 0.13 0.05 0.07 0.03 0.01 0.00 0.00 0.00 0.00 0.01 0.04 0.16 0.20 0.21 0.21 0.19 0.14
0.06 0.07 0.11 0.12 0.14 0.22 0.19 0.12 0.09 0.13 0.15 0.15 0.17 0.24 0.25 0.20 0.11 0.04 0.06 0.13 0.15 0.12 0.13 0.18 0.20 0.09 0.01 0.01 0.01 0.01 0.01 0.01 0.00 0.00 0.01 0.02 0.07 0.19 0.20 0.18 0.19 0.26 0.26
0.14 0.12 0.11 0.15 0.24 0.21 0.22 0.18 0.13 0.14 0.13 0.13 0.16 0.18 0.23 0.23 0.17 0.05 0.07 0.10 0.10 0.07 0.08 0.12 0.05 0.01 0.00 0.00 0.00 0.00 0.00 0.01 0.00 0.00 0.01 0.05 0.07 0.22 0.22 0.11 0.14 0.25 0.32
0.17 0.31 0.36 0.41 0.49 0.42 0.30 0.24 0.21 0.17 0.14 0.15 0.16 0.17 0.22 0.24 0.26 0.07 0.05 0.08 0.06 0.05 0.04 0.02 0.00 0.00 0.00 0.00 0.00 0.01 0.01 0.00 0.00 0.00 0.01 0.02 0.05 0.12 0.09 0.08 0.05 0.08 0.10
0.31 0.27 0.41 0.49 0.48 0.52 0.39 0.30 0.30 0.22 0.15 0.16 0.18 0.22 0.31 0.29 0.26 0.07 0.05 0.07 0.04 0.03 0.01 0.00 0.00 0.00 0.00 0.00 0.01 0.01 0.01 0.00 0.00 0.00 0.00 0.01 0.05 0.03 0.03 0.03 0.04 0.04 0.05
0.63 0.80 0.67 0.58 0.69 0.69 0.63 0.54 0.31 0.22 0.21 0.18 0.20 0.21 0.23 0.21 0.18 0.09 0.08 0.08 0.05 0.04 0.03 0.02 0.02 0.02 0.02 0.01 0.01 0.00 0.00 0.00 0.00 0.00 0.00 0.00 0.02 0.02 0.03 0.05 0.07 0.07 0.09
0.70 0.87 0.93 0.74 0.83 0.93 0.89 0.66 0.48 0.33 0.28 0.21 0.14 0.07 0.07 0.11 0.11 0.11 0.07 0.06 0.04 0.03 0.01 0.02 0.03 0.02 0.02 0.02 0.01 0.00 0.00 0.00 0.00 0.00 0.00 0.00 0.00 0.02 0.07 0.08 0.09 0.11 0.16
0.82 0.94 0.86 0.57 0.61 0.74 0.83 0.89 0.97 0.82 0.68 0.42 0.15 0.06 0.08 0.09 0.12 0.08 0.03 0.05 0.05 0.02 0.00 0.01 0.02 0.01 0.01 0.01 0.00 0.00 0.00 0.00 0.00 0.00 0.00 0.00 0.01 0.02 0.04 0.08 0.11 0.12 0.13
0.79 0.89 1.04 0.74 0.52 0.55 0.74 0.81 0.87 1.05 0.95 0.57 0.11 0.05 0.06 0.06 0.07 0.11 0.05 0.05 0.05 0.01 0.00 0.00 0.00 0.00 0.00 0.00 0.00 0.00 0.00 0.00 0.00 0.00 0.00 0.00 0.00 0.02 0.03 0.04 0.06 0.06 0.04
0.78 0.79 0.87 1.03 0.78 0.66 0.59 0.77 0.79 0.73 0.76 0.66 0.49 0.20 0.05 0.08 0.13 0.13 0.10 0.05 0.03 0.00 0.00 0.00 0.00 0.00 0.00 0.00 0.00 0.00 0.00 0.00 0.00 0.00 0.00 0.00 0.01 0.01 0.01 0.03 0.03 0.04 0.03
1.62 0.97 1.00 1.04 1.42 0.86 0.75 0.63 0.62 0.52 0.38 0.37 0.35 0.33 0.23 0.15 0.10 0.12 0.09 0.04 0.01 0.00 0.00 0.00 0.00 0.00 0.00 0.00 0.00 0.00 0.00 0.00 0.00 0.00 0.00 0.00 0.00 0.01 0.01 0.01 0.02 0.03 0.03
1.93 1.50 1.12 1.33 1.57 1.67 1.20 0.80 0.47 0.43 0.35 0.25 0.23 0.17 0.10 0.07 0.06 0.08 0.05 0.01 0.00 0.00 0.00 0.00 0.00 0.00 0.00 0.00 0.00 0.00 0.00 0.00 0.00 0.00 0.00 0.00 0.00 0.00 0.00 0.01 0.01 0.01 0.04
2.48 2.11 1.52 1.51 1.40 1.48 1.84 1.39 0.54 0.34 0.28 0.36 0.16 0.14 0.14 0.10 0.02 0.03 0.01 0.00 0.00 0.00 0.00 0.00 0.00 0.00 0.00 0.00 0.00 0.00 0.00 0.00 0.00 0.00 0.00 0.00 0.00 0.00 0.00 0.01 0.03 0.01 0.02
1.89 1.98 1.95 1.25 1.30 1.03 1.90 1.84 1.26 0.48 0.40 0.31 0.25 0.10 0.10 0.10 0.06 0.03 0.02 0.00 0.00 0.00 0.00 0.00 0.00 0.00 0.00 0.00 0.00 0.00 0.00 0.00 0.00 0.00 0.00 0.00 0.00 0.00 0.00 0.03 0.22 0.20 0.12
1.43 1.66 1.73 1.45 0.94 0.94 0.99 2.02 1.75 1.01 0.57 0.50 0.41 0.24 0.14 0.07 0.06 0.06 0.03 0.00 0.00 0.00 0.00 0.00 0.00 0.00 0.00 0.00 0.00 0.00 0.00 0.00 0.00 0.00 0.00 0.00 0.00 0.00 0.00 0.00 0.10 0.31 0.45
1.31 1.37 1.58 1.13 0.74 0.81 0.75 1.43 1.74 1.89 0.97 0.59 0.50 0.37 0.23 0.17 0.05 0.05 0.04 0.02 0.01 0.00 0.00 0.00 0.00 0.00 0.00 0.00 0.00 0.00 0.00 0.00 0.00 0.00 0.00 0.00 0.00 0.00 0.00 0.00 0.00 0.05 0.16
1.67 1.72 2.02 1.65 1.04 0.79 0.86 1.09 1.37 1.36 1.51 1.18 0.64 0.38 0.40 0.27 0.20 0.13 0.07 0.05 0.08 0.01 0.00 0.00 0.00 0.00 0.00 0.00 0.00 0.00 0.00 0.00 0.00 0.00 0.00 0.00 0.00 0.00 0.00 0.00 0.00 0.00 0.00
1.74 1.93 2.53 2.34 2.00 1.28 0.75 0.63 0.77 1.06 1.15 1.11 1.28 0.84 0.52 0.41 0.35 0.26 0.14 0.08 0.10 0.03 0.00 0.00 0.00 0.00 0.00 0.00 0.00 0.00 0.00 0.00 0.00 0.00 0.00 0.00 0.00 0.00 0.00 0.01 0.03 0.06 0.03
1.81 1.56 2.36 2.77 2.01 1.48 1.04 0.86 0.89 1.06 0.96 1.12 1.26 1.09 1.07 0.87 0.78 0.43 0.25 0.26 0.13 0.04 0.01 0.00 0.01 0.01 0.01 0.01 0.02 0.04 0.03 0.01 0.00 0.00 0.01 0.00 0.00 0.01 0.03 0.07 0.12 0.12 0.07
2.58 1.53 2.00 3.12 2.62 1.98 1.65 1.90 1.85 1.75 1.28 1.22 1.04 1.16 1.60 1.72 1.47 1.08 0.82 0.70 0.55 0.35 0.39 0.29 0.32 0.30 0.23 0.22 0.18 0.23 0.23 0.19 0.14 0.05 0.05 0.05 0.08 0.07 0.07 0.05 0.05 0.05 0.04
2.03 1.93 1.86 2.68 3.89 2.35 2.14 1.75 1.26 1.21 1.36 1.05 1.25 1.45 1.24 1.39 1.52 1.71 1.72 1.45 1.21 1.15 0.99 1.03 0.84 0.91 0.98 0.85 0.72 0.57 0.57 0.45 0.41 0.23 0.07 0.08 0.07 0.06 0.06 0.03 0.03 0.05 0.09
0.98 2.02 1.96 2.65 2.97 4.34 2.96 2.30 1.42 1.01 0.96 0.91 0.84 0.86 1.02 1.04 1.22 1.46 1.63 1.77 1.74 1.77 1.72 1.74 1.68 1.51 1.31 1.07 0.85 0.77 0.64 0.57 0.57 0.76 0.59 0.31 0.25 0.13 0.06 0.07 0.09 0.12 0.18
0.68 1.47 2.11 2.65 2.35 4.08 4.49 3.81 2.34 1.30 1.08 1.28 1.05 1.08 1.17 1.42 1.50 1.65 1.87 1.84 1.85 1.61 1.38 1.43 1.51 1.22 0.94 0.74 0.63 0.71 0.83 0.82 0.62 0.62 0.53 0.26 0.17 0.09 0.06 0.06 0.09 0.11 0.12

GFSSE_prec_precacc_147.txt.gz
Total_Precipitation_Accumulation
0.06 0.09 0.20 0.25 0.22 0.21 0.15 0.11 0.10 0.08 0.06 0.07 0.08 0.11 0.14 0.07 0.10 0.11 0.12 0.09 0.08 0.18 0.49 0.54 0.44 0.57 0.65 0.41 0.20 0.10 0.04 0.03 0.02 0.01 0.02 0.06 0.09 0.08 0.06 0.06 0.08 0.10 0.15
0.04 0.09 0.15 0.26 0.25 0.26 0.24 0.16 0.12 0.07 0.09 0.12 0.11 0.10 0.13 0.14 0.10 0.06 0.07 0.11 0.12 0.24 0.54 0.48 0.43 0.35 0.50 0.29 0.08 0.03 0.02 0.02 0.00 0.00 0.01 0.01 0.05 0.07 0.02 0.03 0.12 0.10 0.12
0.03 0.09 0.09 0.19 0.20 0.20 0.19 0.16 0.10 0.07 0.10 0.13 0.11 0.14 0.19 0.10 0.05 0.06 0.12 0.18 0.19 0.35 0.49 0.37 0.27 0.26 0.34 0.12 0.07 0.04 0.02 0.01 0.01 0.01 0.02 0.04 0.12 0.24 0.13 0.10 0.17 0.15 0.14
0.04 0.10 0.09 0.12 0.16 0.21 0.21 0.13 0.10 0.08 0.12 0.14 0.13 0.21 0.25 0.11 0.08 0.08 0.13 0.15 0.15 0.25 0.21 0.21 0.21 0.26 0.13 0.05 0.07 0.03 0.01 0.00 0.00 0.00 0.00 0.01 0.04 0.16 0.20 0.23 0.23 0.20 0.14
0.07 0.08 0.13 0.13 0.15 0.24 0.23 0.14 0.09 0.13 0.16 0.16 0.17 0.24 0.25 0.20 0.11 0.05 0.07 0.14 0.15 0.12 0.13 0.18 0.20 0.09 0.01 0.01 0.01 0.01 0.01 0.01 0.00 0.00 0.01 0.03 0.07 0.20 0.20 0.18 0.19 0.26 0.26
0.14 0.12 0.12 0.17 0.30 0.25 0.27 0.21 0.16 0.15 0.14 0.14 0.16 0.18 0.23 0.23 0.17 0.06 0.08 0.10 0.10 0.07 0.08 0.12 0.05 0.01 0.00 0.00 0.00 0.00 0.00 0.01 0.00 0.00 0.01 0.06 0.07 0.23 0.23 0.12 0.15 0.25 0.32
0.17 0.31 0.38 0.44 0.54 0.44 0.32 0.29 0.23 0.19 0.14 0.15 0.16 0.17 0.22 0.24 0.26 0.08 0.05 0.08 0.06 0.05 0.04 0.02 0.00 0.00 0.00 0.00 0.00 0.01 0.01 0.00 0.00 0.00 0.01 0.02 0.05 0.13 0.09 0.08 0.05 0.09 0.10
0.31 0.27 0.42 0.50 0.49 0.56 0.40 0.31 0.32 0.24 0.16 0.16 0.18 0.22 0.31 0.30 0.27 0.08 0.05 0.07 0.04 0.03 0.01 0.00 0.00 0.00 0.00 0.00 0.01 0.01 0.01 0.00 0.00 0.00 0.00 0.01 0.05 0.03 0.03 0.03 0.04 0.05 0.05
0.63 0.80 0.67 0.59 0.69 0.69 0.64 0.54 0.31 0.23 0.22 0.18 0.20 0.21 0.23 0.21 0.19 0.09 0.08 0.09 0.05 0.04 0.03 0.02 0.02 0.02 0.02 0.01 0.01 0.00 0.00 0.00 0.00 0.00 0.00 0.00 0.02 0.02 0.03 0.05 0.07 0.07 0.09
0.70 0.87 0.93 0.74 0.84 0.93 0.89 0.66 0.48 0.33 0.28 0.21 0.14 0.07 0.07 0.11 0.12 0.11 0.07 0.07 0.05 0.03 0.01 0.02 0.03 0.02 0.02 0.02 0.01 0.00 0.00 0.00 0.00 0.00 0.00 0.00 0.00 0.02 0.07 0.08 0.09 0.11 0.16
0.82 0.94 0.86 0.57 0.61 0.74 0.83 0.89 0.97 0.82 0.68 0.42 0.15 0.06 0.08 0.09 0.12 0.08 0.03 0.05 0.05 0.02 0.00 0.01 0.02 0.01 0.01 0.01 0.00 0.00 0.00 0.00 0.00 0.00 0.00 0.00 0.01 0.02 0.04 0.08 0.11 0.12 0.13
0.79 0.89 1.04 0.74 0.52 0.55 0.74 0.82 0.87 1.05 0.95 0.57 0.11 0.05 0.06 0.06 0.07 0.11 0.05 0.05 0.05 0.01 0.00 0.00 0.00 0.00 0.00 0.00 0.00 0.00 0.00 0.00 0.00 0.00 0.00 0.00 0.00 0.02 0.03 0.04 0.06 0.06 0.04
0.78 0.79 0.87 1.03 0.78 0.66 0.59 0.77 0.79 0.73 0.76 0.66 0.49 0.20 0.05 0.08 0.13 0.13 0.10 0.05 0.03 0.00 0.00 0.00 0.00 0.00 0.00 0.00 0.00 0.00 0.00 0.00 0.00 0.00 0.00 0.00 0.01 0.01 0.01 0.03 0.03 0.04 0.03
1.62 0.97 1.00 1.04 1.42 0.86 0.75 0.63 0.62 0.52 0.38 0.37 0.35 0.33 0.23 0.15 0.10 0.12 0.09 0.04 0.01 0.00 0.00 0.00 0.00 0.00 0.00 0.00 0.00 0.00 0.00 0.00 0.00 0.00 0.00 0.00 0.00 0.01 0.01 0.01 0.02 0.03 0.03
1.93 1.50 1.12 1.33 1.57 1.67 1.20 0.80 0.47 0.43 0.35 0.25 0.23 0.17 0.10 0.07 0.06 0.08 0.05 0.01 0.00 0.00 0.00 0.00 0.00 0.00 0.00 0.00 0.00 0.00 0.00 0.00 0.00 0.00 0.00 0.00 0.00 0.00 0.00 0.01 0.01 0.01 0.04
2.48 2.11 1.52 1.51 1.40 1.48 1.84 1.39 0.54 0.34 0.28 0.36 0.16 0.14 0.14 0.10 0.02 0.03 0.01 0.00 0.00 0.00 0.00 0.00 0.00 0.00 0.00 0.00 0.00 0.00 0.00 0.00 0.00 0.00 0.00 0.00 0.00 0.00 0.00 0.01 0.03 0.01 0.02
1.89 1.98 1.95 1.25 1.30 1.03 1.90 1.84 1.26 0.48 0.40 0.31 0.25 0.10 0.10 0.10 0.06 0.03 0.02 0.00 0.00 0.00 0.00 0.00 0.00 0.00 0.00 0.00 0.00 0.00 0.00 0.00 0.00 0.00 0.00 0.00 0.00 0.00 0.00 0.03 0.22 0.20 0.12
1.43 1.66 1.73 1.45 0.94 0.94 0.99 2.02 1.75 1.01 0.57 0.50 0.41 0.24 0.14 0.07 0.06 0.06 0.04 0.01 0.00 0.00 0.00 0.00 0.00 0.00 0.00 0.00 0.00 0.00 0.00 0.00 0.00 0.00 0.00 0.00 0.00 0.00 0.00 0.00 0.10 0.31 0.45
1.31 1.37 1.58 1.13 0.74 0.81 0.75 1.43 1.74 1.89 0.97 0.59 0.50 0.37 0.23 0.18 0.06 0.06 0.05 0.04 0.03 0.01 0.01 0.00 0.00 0.00 0.00 0.00 0.00 0.00 0.00 0.00 0.00 0.00 0.00 0.00 0.00 0.00 0.00 0.00 0.00 0.05 0.16
1.67 1.72 2.02 1.65 1.04 0.79 0.86 1.09 1.37 1.36 1.51 1.18 0.64 0.38 0.40 0.28 0.24 0.18 0.09 0.06 0.12 0.03 0.00 0.00 0.00 0.00 0.00 0.00 0.00 0.00 0.00 0.00 0.00 0.00 0.00 0.00 0.00 0.00 0.00 0.00 0.00 0.00 0.00
1.74 1.93 2.53 2.34 2.00 1.28 0.75 0.63 0.77 1.06 1.15 1.11 1.28 0.84 0.52 0.41 0.38 0.31 0.16 0.09 0.13 0.06 0.00 0.00 0.00 0.00 0.00 0.00 0.00 0.00 0.00 0.00 0.00 0.00 0.00 0.00 0.00 0.00 0.00 0.01 0.03 0.06 0.03
1.81 1.56 2.36 2.77 2.01 1.48 1.04 0.86 0.89 1.06 0.96 1.12 1.26 1.09 1.07 0.87 0.78 0.44 0.27 0.26 0.16 0.07 0.04 0.02 0.03 0.01 0.01 0.01 0.02 0.04 0.03 0.01 0.00 0.00 0.01 0.00 0.00 0.01 0.03 0.07 0.12 0.12 0.07
2.58 1.53 2.00 3.12 2.62 1.98 1.65 1.90 1.85 1.75 1.28 1.22 1.04 1.16 1.60 1.72 1.48 1.09 0.85 0.75 0.59 0.40 0.44 0.31 0.36 0.31 0.23 0.22 0.18 0.23 0.23 0.19 0.14 0.05 0.05 0.05 0.08 0.07 0.07 0.05 0.05 0.05 0.04
2.03 1.93 1.86 2.68 3.89 2.35 2.14 1.75 1.26 1.21 1.36 1.05 1.25 1.45 1.24 1.39 1.52 1.71 1.73 1.50 1.29 1.22 1.04 1.07 0.87 0.94 0.99 0.85 0.73 0.58 0.57 0.45 0.41 0.23 0.07 0.08 0.07 0.06 0.06 0.03 0.03 0.05 0.09
0.98 2.02 1.96 2.65 2.97 4.34 2.96 2.30 1.42 1.01 0.96 0.91 0.84 0.86 1.02 1.04 1.22 1.46 1.64 1.80 1.79 1.86 1.81 1.85 1.75 1.56 1.33 1.07 0.86 0.78 0.64 0.57 0.57 0.76 0.59 0.31 0.25 0.13 0.06 0.07 0.09 0.12 0.18
0.68 1.47 2.11 2.65 2.35 4.08 4.49 3.81 2.34 1.30 1.08 1.28 1.05 1.08 1.17 1.42 1.50 1.65 1.87 1.85 1.87 1.65 1.46 1.55 1.62 1.31 1.00 0.77 0.64 0.74 0.86 0.83 0.63 0.62 0.53 0.26 0.17 0.09 0.06 0.06 0.09 0.11 0.12

GFSSE_prec_precacc_150.txt.gz
Total_Precipitation_Accumulation
0.09 0.10 0.24 0.33 0.24 0.22 0.16 0.11 0.10 0.08 0.07 0.07 0.08 0.11 0.14 0.07 0.10 0.11 0.12 0.09 0.09 0.24 0.62 0.55 0.44 0.57 0.65 0.41 0.20 0.10 0.04 0.03 0.02 0.01 0.02 0.06 0.09 0.09 0.07 0.06 0.08 0.10 0.15
0.07 0.10 0.18 0.30 0.31 0.28 0.28 0.18 0.12 0.07 0.09 0.12 0.11 0.10 0.13 0.14 0.10 0.06 0.07 0.11 0.14 0.40 0.58 0.48 0.43 0.35 0.50 0.29 0.08 0.03 0.02 0.02 0.00 0.00 0.01 0.01 0.05 0.07 0.03 0.04 0.12 0.10 0.13
0.03 0.09 0.11 0.23 0.27 0.23 0.23 0.18 0.11 0.07 0.10 0.13 0.11 0.14 0.19 0.10 0.05 0.06 0.12 0.18 0.24 0.45 0.49 0.37 0.27 0.26 0.34 0.12 0.07 0.04 0.02 0.01 0.01 0.02 0.02 0.04 0.12 0.24 0.14 0.11 0.18 0.15 0.14
0.04 0.11 0.09 0.15 0.20 0.24 0.24 0.15 0.11 0.08 0.13 0.15 0.13 0.21 0.25 0.11 0.08 0.08 0.14 0.15 0.26 0.31 0.21 0.21 0.21 0.26 0.13 0.05 0.07 0.03 0.01 0.01 0.01 0.00 0.00 0.01 0.04 0.16 0.24 0.26 0.24 0.20 0.14
0.07 0.09 0.14 0.17 0.18 0.29 0.26 0.16 0.10 0.14 0.17 0.16 0.17 0.24 0.25 0.20 0.12 0.05 0.07 0.14 0.15 0.12 0.13 0.18 0.20 0.09 0.01 0.01 0.01 0.01 0.01 0.01 0.00 0.00 0.01 0.03 0.07 0.20 0.20 0.18 0.19 0.27 0.26
0.14 0.12 0.13 0.20 0.34 0.28 0.31 0.24 0.16 0.15 0.15 0.14 0.16 0.18 0.23 0.23 0.19 0.08 0.08 0.10 0.10 0.07 0.08 0.12 0.05 0.01 0.00 0.00 0.00 0.00 0.00 0.01 0.00 0.00 0.01 0.06 0.07 0.24 0.24 0.12 0.15 0.25 0.32
0.17 0.31 0.40 0.46 0.56 0.48 0.36 0.32 0.24 0.19 0.15 0.15 0.16 0.17 0.22 0.24 0.27 0.09 0.05 0.08 0.06 0.05 0.04 0.02 0.00 0.00 0.00 0.00 0.00 0.01 0.01 0.00 0.00 0.00 0.01 0.02 0.05 0.13 0.09 0.09 0.06 0.09 0.10
0.31 0.27 0.44 0.50 0.50 0.58 0.44 0.32 0.33 0.25 0.16 0.17 0.18 0.22 0.31 0.30 0.27 0.09 0.05 0.07 0.04 0.03 0.01 0.00 0.00 0.00 0.00 0.00 0.01 0.01 0.01 0.00 0.00 0.00 0.00 0.01 0.06 0.04 0.03 0.04 0.05 0.05 0.06
0.63 0.80 0.68 0.59 0.70 0.69 0.64 0.54 0.32 0.24 0.22 0.18 0.20 0.21 0.23 0.22 0.20 0.10 0.08 0.09 0.05 0.04 0.03 0.02 0.02 0.02 0.02 0.01 0.01 0.00 0.00 0.00 0.00 0.00 0.00 0.00 0.02 0.02 0.03 0.05 0.07 0.07 0.09
0.70 0.87 0.93 0.75 0.84 0.94 0.89 0.66 0.48 0.33 0.28 0.21 0.14 0.07 0.07 0.11 0.12 0.11 0.07 0.07 0.05 0.03 0.01 0.02 0.03 0.02 0.02 0.02 0.01 0.00 0.00 0.00 0.00 0.00 0.00 0.00 0.00 0.02 0.07 0.08 0.09 0.11 0.16
0.82 0.94 0.86 0.57 0.61 0.76 0.86 0.89 0.97 0.82 0.68 0.42 0.15 0.06 0.08 0.09 0.13 0.08 0.03 0.05 0.05 0.02 0.00 0.01 0.02 0.01 0.01 0.01 0.00 0.00 0.00 0.00 0.00 0.00 0.00 0.00 0.01 0.02 0.04 0.08 0.11 0.12 0.13
0.79 0.89 1.04 0.74 0.52 0.56 0.76 0.85 0.87 1.05 0.95 0.57 0.11 0.05 0.06 0.06 0.07 0.11 0.05 0.05 0.05 0.01 0.00 0.00 0.00 0.00 0.00 0.00 0.00 0.00 0.00 0.00 0.00 0.00 0.00 0.00 0.00 0.02 0.03 0.04 0.06 0.06 0.04
0.78 0.79 0.87 1.03 0.78 0.66 0.59 0.79 0.84 0.74 0.76 0.66 0.49 0.20 0.05 0.08 0.13 0.13 0.10 0.05 0.03 0.00 0.00 0.00 0.00 0.00 0.00 0.00 0.00 0.00 0.00 0.00 0.00 0.00 0.00 0.00 0.01 0.01 0.01 0.03 0.03 0.04 0.03
1.62 0.97 1.00 1.04 1.42 0.86 0.75 0.63 0.62 0.53 0.38 0.37 0.35 0.33 0.23 0.15 0.10 0.12 0.09 0.04 0.01 0.00 0.00 0.00 0.00 0.00 0.00 0.00 0.00 0.00 0.00 0.00 0.00 0.00 0.00 0.00 0.00 0.01 0.01 0.01 0.02 0.03 0.03
1.93 1.50 1.12 1.33 1.57 1.67 1.20 0.80 0.47 0.43 0.35 0.29 0.25 0.17 0.10 0.07 0.06 0.08 0.05 0.01 0.00 0.00 0.00 0.00 0.00 0.00 0.00 0.00 0.00 0.00 0.00 0.00 0.00 0.00 0.00 0.00 0.00 0.00 0.00 0.01 0.01 0.01 0.04
2.48 2.11 1.52 1.51 1.40 1.48 1.84 1.39 0.54 0.34 0.28 0.36 0.18 0.16 0.16 0.11 0.02 0.03 0.01 0.00 0.00 0.00 0.00 0.00 0.00 0.00 0.00 0.00 0.00 0.00 0.00 0.00 0.00 0.00 0.00 0.00 0.00 0.00 0.00 0.01 0.03 0.01 0.02
1.89 1.98 1.95 1.25 1.30 1.03 1.90 1.84 1.26 0.48 0.40 0.31 0.26 0.13 0.14 0.13 0.09 0.05 0.03 0.00 0.00 0.00 0.00 0.00 0.00 0.00 0.00 0.00 0.00 0.00 0.00 0.00 0.00 0.00 0.00 0.00 0.00 0.00 0.00 0.03 0.22 0.20 0.12
1.43 1.66 1.73 1.45 0.94 0.94 0.99 2.02 1.75 1.01 0.57 0.50 0.41 0.24 0.16 0.11 0.10 0.13 0.09 0.01 0.06 0.05 0.02 0.00 0.00 0.00 0.00 0.00 0.00 0.00 0.00 0.00 0.00 0.00 0.00 0.00 0.00 0.00 0.00 0.00 0.10 0.31 0.45
1.31 1.37 1.58 1.13 0.74 0.81 0.75 1.43 1.74 1.89 0.97 0.59 0.50 0.37 0.24 0.21 0.10 0.11 0.10 0.08 0.12 0.07 0.03 0.00 0.00 0.00 0.00 0.00 0.00 0.00 0.00 0.00 0.00 0.00 0.00 0.00 0.00 0.00 0.00 0.00 0.00 0.05 0.16
1.67 1.72 2.02 1.65 1.04 0.79 0.86 1.09 1.37 1.36 1.51 1.18 0.64 0.38 0.40 0.29 0.29 0.24 0.14 0.10 0.18 0.10 0.03 0.01 0.00 0.00 0.00 0.00 0.00 0.00 0.00 0.00 0.00 0.00 0.00 0.00 0.00 0.00 0.00 0.00 0.00 0.00 0.00
1.74 1.93 2.53 2.34 2.00 1.28 0.75 0.63 0.77 1.06 1.15 1.11 1.28 0.84 0.52 0.41 0.39 0.36 0.21 0.14 0.17 0.09 0.04 0.07 0.03 0.00 0.00 0.01 0.00 0.00 0.00 0.00 0.00 0.00 0.00 0.00 0.00 0.00 0.00 0.01 0.03 0.06 0.03
1.81 1.56 2.36 2.77 2.01 1.48 1.04 0.86 0.89 1.06 0.96 1.12 1.26 1.09 1.07 0.87 0.78 0.45 0.30 0.31 0.22 0.12 0.09 0.06 0.07 0.03 0.01 0.02 0.03 0.04 0.03 0.01 0.00 0.00 0.01 0.00 0.00 0.01 0.03 0.07 0.12 0.12 0.07
2.58 1.53 2.00 3.12 2.62 1.98 1.65 1.90 1.85 1.75 1.28 1.22 1.04 1.16 1.60 1.72 1.48 1.09 0.86 0.79 0.64 0.45 0.48 0.35 0.42 0.37 0.27 0.24 0.20 0.24 0.24 0.19 0.14 0.05 0.05 0.05 0.08 0.07 0.07 0.05 0.05 0.05 0.04
2.03 1.93 1.86 2.68 3.89 2.35 2.14 1.75 1.26 1.21 1.36 1.05 1.25 1.45 1.24 1.39 1.52 1.71 1.74 1.52 1.31 1.26 1.10 1.11 0.93 1.01 1.06 0.91 0.76 0.59 0.58 0.45 0.41 0.23 0.07 0.08 0.07 0.06 0.06 0.03 0.03 0.05 0.09
0.98 2.02 1.96 2.65 2.97 4.34 2.96 2.30 1.42 1.01 0.96 0.91 0.84 0.86 1.02 1.04 1.22 1.46 1.64 1.80 1.81 1.89 1.87 1.94 1.83 1.62 1.40 1.16 0.93 0.87 0.69 0.58 0.57 0.76 0.59 0.31 0.25 0.13 0.06 0.07 0.09 0.12 0.18
0.68 1.47 2.11 2.65 2.35 4.08 4.49 3.81 2.34 1.30 1.08 1.28 1.05 1.08 1.17 1.42 1.50 1.65 1.87 1.85 1.87 1.65 1.48 1.60 1.72 1.43 1.10 0.87 0.74 0.82 0.92 0.88 0.65 0.63 0.54 0.26 0.17 0.09 0.06 0.06 0.09 0.11 0.12